IT9IJI-13 Weather Reports


time (UTC)temp
C
wind
direction
speed
KPH
gust
KPH
rain 1hr
cm
rain 24hr
cm
rain mn
cm
humidity
%
barometer
mb
20260901125404 31 300 8.0 17.7 0.00 0.00 0.00 48 1016.9
20260901125308 31 300 8.0 17.7 0.00 0.00 0.00 48 1016.8
20260901125204 31 301 8.0 17.7 0.00 0.00 0.00 48 1016.9
20260901125104 31 302 8.0 17.7 0.00 0.00 0.00 48 1016.8
20260901125004 31 302 8.0 20.9 0.00 0.00 0.00 48 1016.9
20260901124904 31 300 8.0 20.9 0.00 0.00 0.00 49 1016.8
20260901124804 31 299 9.7 20.9 0.00 0.00 0.00 49 1016.7
20260901124704 31 299 9.7 20.9 0.00 0.00 0.00 49 1016.8
20260901124604 31 299 9.7 22.5 0.00 0.00 0.00 49 1016.7
20260901124504 31 298 9.7 22.5 0.00 0.00 0.00 49 1016.7
20260901124404 31 297 9.7 22.5 0.00 0.00 0.00 49 1016.7
20260901124304 31 298 9.7 22.5 0.00 0.00 0.00 49 1016.8
20260901124204 31 298 9.7 22.5 0.00 0.00 0.00 49 1016.8
20260901124103 31 298 9.7 22.5 0.00 0.00 0.00 49 1016.9
20260901124004 31 299 9.7 22.5 0.00 0.00 0.00 49 1016.8
20260901123904 31 299 9.7 22.5 0.00 0.00 0.00 49 1016.8
20260901123804 31 299 9.7 22.5 0.00 0.00 0.00 49 1016.8
20260901123703 31 299 9.7 22.5 0.00 0.00 0.00 49 1016.9
20260901123604 31 298 8.0 19.3 0.00 0.00 0.00 49 1016.9
20260901123503 31 299 8.0 19.3 0.00 0.00 0.00 49 1016.8
20260901123403 31 300 8.0 19.3 0.00 0.00 0.00 49 1016.9
20260901123303 31 300 6.4 19.3 0.00 0.00 0.00 49 1016.8
20260901123204 31 298 8.0 19.3 0.00 0.00 0.00 49 1016.8
20260901123103 31 299 8.0 19.3 0.00 0.00 0.00 49 1016.8
20260901123003 31 296 8.0 19.3 0.00 0.00 0.00 49 1016.8
20260901122903 31 297 8.0 19.3 0.00 0.00 0.00 49 1016.9
20260901122804 31 298 8.0 19.3 0.00 0.00 0.00 49 1016.9
20260901122703 31 298 8.0 19.3 0.00 0.00 0.00 49 1016.8
20260901122603 31 298 8.0 19.3 0.00 0.00 0.00 49 1016.8
20260901122503 31 298 8.0 19.3 0.00 0.00 0.00 49 1016.9
20260901122403 31 299 8.0 19.3 0.00 0.00 0.00 49 1016.9
20260901122306 31 299 8.0 19.3 0.00 0.00 0.00 49 1016.8
20260901122203 31 301 6.4 19.3 0.00 0.00 0.00 49 1016.8
20260901122103 31 300 6.4 19.3 0.00 0.00 0.00 49 1016.9
20260901122003 31 304 6.4 19.3 0.00 0.00 0.00 48 1016.8
20260901121903 31 303 6.4 19.3 0.00 0.00 0.00 48 1016.9
20260901121803 31 303 4.8 19.3 0.00 0.00 0.00 49 1016.8
20260901121703 31 305 4.8 17.7 0.00 0.00 0.00 49 1016.8
20260901121603 31 305 4.8 17.7 0.00 0.00 0.00 49 1016.8
20260901121503 31 305 4.8 19.3 0.00 0.00 0.00 49 1016.9
20260901121403 31 303 4.8 19.3 0.00 0.00 0.00 49 1016.9
20260901121303 31 301 4.8 19.3 0.00 0.00 0.00 49 1016.8
20260901121203 31 299 6.4 19.3 0.00 0.00 0.00 49 1016.8
20260901121103 31 298 6.4 19.3 0.00 0.00 0.00 49 1016.9
20260901121003 31 297 6.4 19.3 0.00 0.00 0.00 49 1016.9
20260901120903 31 298 6.4 19.3 0.00 0.00 0.00 49 1016.9
20260901120803 31 299 8.0 19.3 0.00 0.00 0.00 49 1016.9
20260901120703 31 299 8.0 19.3 0.00 0.00 0.00 49 1016.9
20260901120603 31 299 8.0 19.3 0.00 0.00 0.00 49 1016.9
20260901120503 31 299 8.0 19.3 0.00 0.00 0.00 49 1016.9
20260901120403 31 298 6.4 17.7 0.00 0.00 0.00 49 1017.0
20260901120303 31 298 6.4 17.7 0.00 0.00 0.00 49 1016.9
20260901120203 31 300 6.4 24.1 0.00 0.00 0.00 49 1016.9
20260901120103 31 301 6.4 24.1 0.00 0.00 0.00 49 1016.9
20260901120003 31 299 6.4 24.1 0.00 0.00 0.00 49 1016.9
20260901115903 31 300 4.8 24.1 0.00 0.00 0.00 49 1016.9
20260901115803 31 298 6.4 24.1 0.00 0.00 0.00 49 1016.9
20260901115703 31 298 6.4 24.1 0.00 0.00 0.00 49 1017.0
20260901115603 31 299 6.4 24.1 0.00 0.00 0.00 49 1016.9
20260901115503 31 300 8.0 24.1 0.00 0.00 0.00 49 1016.9
20260901115403 31 299 8.0 24.1 0.00 0.00 0.00 49 1016.9
20260901115306 31 299 8.0 24.1 0.00 0.00 0.00 49 1017.0
20260901115203 31 297 8.0 24.1 0.00 0.00 0.00 49 1016.8
20260901115103 31 298 8.0 24.1 0.00 0.00 0.00 49 1016.8
20260901115003 31 297 8.0 24.1 0.00 0.00 0.00 49 1016.8
20260901114903 31 297 9.7 24.1 0.00 0.00 0.00 49 1016.9
20260901114803 31 297 9.7 24.1 0.00 0.00 0.00 49 1017.0
20260901114703 31 297 9.7 24.1 0.00 0.00 0.00 49 1016.9
20260901114603 31 296 8.0 24.1 0.00 0.00 0.00 49 1016.9
20260901114503 31 295 8.0 19.3 0.00 0.00 0.00 49 1017.0
20260901114403 31 295 6.4 19.3 0.00 0.00 0.00 50 1016.9
20260901114303 31 296 6.4 19.3 0.00 0.00 0.00 50 1016.9
20260901114203 31 296 6.4 19.3 0.00 0.00 0.00 49 1016.8
20260901114103 31 297 6.4 19.3 0.00 0.00 0.00 49 1016.9
20260901114003 31 301 6.4 19.3 0.00 0.00 0.00 50 1016.9
20260901113903 31 303 6.4 19.3 0.00 0.00 0.00 50 1016.8
20260901113803 31 303 6.4 19.3 0.00 0.00 0.00 50 1016.8
20260901113703 31 304 8.0 19.3 0.00 0.00 0.00 50 1016.8
20260901113603 31 304 8.0 19.3 0.00 0.00 0.00 50 1016.8
20260901113503 31 303 8.0 19.3 0.00 0.00 0.00 49 1016.8
20260901113403 31 304 8.0 19.3 0.00 0.00 0.00 49 1016.8
20260901113303 31 304 8.0 19.3 0.00 0.00 0.00 49 1016.9
20260901113203 31 304 8.0 19.3 0.00 0.00 0.00 49 1016.9
20260901113103 31 304 6.4 19.3 0.00 0.00 0.00 49 1016.9
20260901113003 31 301 6.4 17.7 0.00 0.00 0.00 50 1016.8
20260901112903 31 300 4.8 17.7 0.00 0.00 0.00 49 1016.9
20260901112803 31 299 4.8 17.7 0.00 0.00 0.00 50 1016.9
20260901112703 31 297 4.8 11.3 0.00 0.00 0.00 50 1016.9
20260901112603 31 297 4.8 11.3 0.00 0.00 0.00 50 1016.8
20260901112503 31 298 3.2 11.3 0.00 0.00 0.00 50 1016.8
20260901112403 31 296 3.2 11.3 0.00 0.00 0.00 50 1016.9
20260901112306 31 297 4.8 12.9 0.00 0.00 0.00 50 1016.8
20260901112203 31 297 4.8 12.9 0.00 0.00 0.00 50 1016.8
20260901112103 31 298 4.8 12.9 0.00 0.00 0.00 50 1016.9
20260901112003 31 299 4.8 12.9 0.00 0.00 0.00 50 1016.8
20260901111903 31 298 4.8 12.9 0.00 0.00 0.00 50 1016.8
20260901111803 31 298 4.8 14.5 0.00 0.00 0.00 50 1016.8
20260901111703 31 298 4.8 14.5 0.00 0.00 0.00 50 1016.8
20260901111603 31 301 4.8 17.7 0.00 0.00 0.00 50 1016.9
20260901111503 31 299 6.4 20.9 0.00 0.00 0.00 50 1016.9
20260901111403 31 300 6.4 20.9 0.00 0.00 0.00 50 1016.9
20260901111303 31 301 6.4 20.9 0.00 0.00 0.00 50 1016.9
20260901111203 31 300 6.4 20.9 0.00 0.00 0.00 50 1016.8
20260901111103 31 300 6.4 20.9 0.00 0.00 0.00 50 1016.8
20260901111004 31 300 6.4 20.9 0.00 0.00 0.00 50 1016.9
20260901110904 31 302 6.4 20.9 0.00 0.00 0.00 50 1016.9
20260901110804 31 300 6.4 20.9 0.00 0.00 0.00 50 1016.8
20260901110704 31 299 6.4 20.9 0.00 0.00 0.00 50 1016.9
20260901110604 31 299 8.0 20.9 0.00 0.00 0.00 50 1016.9
20260901110504 31 300 8.0 19.3 0.00 0.00 0.00 50 1016.8
20260901110404 31 299 8.0 19.3 0.00 0.00 0.00 50 1016.9
20260901110304 31 299 6.4 19.3 0.00 0.00 0.00 51 1016.9
20260901110204 31 301 6.4 19.3 0.00 0.00 0.00 51 1016.9
20260901110104 31 302 6.4 19.3 0.00 0.00 0.00 51 1017.0
20260901110004 31 300 6.4 17.7 0.00 0.00 0.00 51 1017.0
20260901105904 31 300 6.4 17.7 0.00 0.00 0.00 50 1016.9
20260901105804 31 301 6.4 17.7 0.00 0.00 0.00 50 1017.1
20260901105704 31 304 6.4 17.7 0.00 0.00 0.00 50 1016.9
20260901105604 31 303 4.8 14.5 0.00 0.00 0.00 51 1017.0
20260901105504 31 304 4.8 12.9 0.00 0.00 0.00 51 1017.0
20260901105404 31 304 6.4 12.9 0.00 0.00 0.00 51 1017.0
20260901105305 31 304 6.4 12.9 0.00 0.00 0.00 51 1017.1
20260901105204 31 303 6.4 14.5 0.00 0.00 0.00 51 1017.1
20260901105104 31 301 6.4 14.5 0.00 0.00 0.00 51 1017.1
20260901105004 31 302 8.0 14.5 0.00 0.00 0.00 51 1017.1
20260901104904 31 301 8.0 16.1 0.00 0.00 0.00 51 1017.0
20260901104804 31 301 8.0 16.1 0.00 0.00 0.00 51 1017.0
20260901104704 31 300 8.0 16.1 0.00 0.00 0.00 51 1017.0
20260901104604 31 301 8.0 16.1 0.00 0.00 0.00 51 1017.0
20260901104504 31 300 8.0 16.1 0.00 0.00 0.00 51 1016.9
20260901104404 31 299 8.0 16.1 0.00 0.00 0.00 51 1017.0
20260901104304 31 299 8.0 16.1 0.00 0.00 0.00 51 1017.0
20260901104204 31 298 8.0 16.1 0.00 0.00 0.00 51 1017.0
20260901104104 31 299 8.0 16.1 0.00 0.00 0.00 50 1017.0
20260901104004 31 297 6.4 16.1 0.00 0.00 0.00 50 1017.0
20260901103904 31 296 6.4 16.1 0.00 0.00 0.00 50 1017.0
20260901103804 31 296 6.4 19.3 0.00 0.00 0.00 51 1017.0
20260901103704 31 298 6.4 19.3 0.00 0.00 0.00 51 1017.0
20260901103604 31 297 6.4 19.3 0.00 0.00 0.00 51 1017.0
20260901103504 31 296 6.4 22.5 0.00 0.00 0.00 51 1017.1
20260901103404 31 296 6.4 22.5 0.00 0.00 0.00 51 1017.0
20260901103304 31 295 6.4 22.5 0.00 0.00 0.00 51 1017.1
20260901103204 31 297 8.0 27.4 0.00 0.00 0.00 51 1017.1
20260901103104 31 298 8.0 27.4 0.00 0.00 0.00 51 1017.0
20260901103004 31 297 8.0 27.4 0.00 0.00 0.00 51 1017.1
20260901102904 31 300 8.0 27.4 0.00 0.00 0.00 51 1017.0
20260901102804 31 300 8.0 27.4 0.00 0.00 0.00 51 1017.1
20260901102704 31 299 8.0 27.4 0.00 0.00 0.00 51 1017.1
20260901102604 31 299 8.0 27.4 0.00 0.00 0.00 51 1017.0
20260901102503 31 299 8.0 27.4 0.00 0.00 0.00 51 1016.9
20260901102404 31 299 6.4 27.4 0.00 0.00 0.00 52 1016.9
20260901102306 31 300 6.4 27.4 0.00 0.00 0.00 52 1016.8
20260901102203 31 299 4.8 20.9 0.00 0.00 0.00 52 1016.8
20260901102103 31 298 4.8 20.9 0.00 0.00 0.00 52 1016.9
20260901102004 31 299 4.8 20.9 0.00 0.00 0.00 52 1016.9
20260901101903 31 298 3.2 16.1 0.00 0.00 0.00 53 1016.9
20260901101804 31 299 4.8 16.1 0.00 0.00 0.00 53 1016.9
20260901101703 31 298 4.8 16.1 0.00 0.00 0.00 53 1016.8
20260901101604 31 298 4.8 16.1 0.00 0.00 0.00 53 1016.9
20260901101503 31 299 4.8 16.1 0.00 0.00 0.00 53 1016.9
20260901101403 31 299 4.8 16.1 0.00 0.00 0.00 53 1016.9
20260901101303 31 298 4.8 16.1 0.00 0.00 0.00 52 1017.0
20260901101203 31 298 4.8 16.1 0.00 0.00 0.00 52 1016.9
20260901101103 31 298 4.8 16.1 0.00 0.00 0.00 53 1016.9
20260901101003 31 298 4.8 12.9 0.00 0.00 0.00 53 1016.9
20260901100903 31 298 4.8 12.9 0.00 0.00 0.00 53 1016.9
20260901100803 31 295 4.8 14.5 0.00 0.00 0.00 54 1016.9
20260901100703 31 295 4.8 14.5 0.00 0.00 0.00 54 1016.9
20260901100603 31 295 6.4 14.5 0.00 0.00 0.00 54 1016.9
20260901100503 31 296 6.4 14.5 0.00 0.00 0.00 54 1016.9
20260901100403 31 296 6.4 14.5 0.00 0.00 0.00 54 1017.0
20260901100303 31 296 6.4 14.5 0.00 0.00 0.00 55 1017.1
20260901100203 31 297 6.4 14.5 0.00 0.00 0.00 55 1017.0
20260901100103 31 297 8.0 14.5 0.00 0.00 0.00 55 1017.1
20260901100004 31 296 8.0 14.5 0.00 0.00 0.00 55 1017.2
20260901095903 31 297 6.4 14.5 0.00 0.00 0.00 55 1017.2
20260901095803 31 299 6.4 12.9 0.00 0.00 0.00 55 1017.0
20260901095703 31 300 4.8 11.3 0.00 0.00 0.00 55 1017.0
20260901095603 31 299 4.8 11.3 0.00 0.00 0.00 55 1017.0
20260901095503 31 297 4.8 11.3 0.00 0.00 0.00 54 1017.1
20260901095403 31 297 4.8 11.3 0.00 0.00 0.00 54 1017.0
20260901095306 31 298 4.8 11.3 0.00 0.00 0.00 55 1017.1
20260901095203 31 297 4.8 11.3 0.00 0.00 0.00 55 1017.0
20260901095103 31 297 4.8 11.3 0.00 0.00 0.00 55 1017.0
20260901095003 31 297 4.8 11.3 0.00 0.00 0.00 55 1017.1
20260901094903 31 296 3.2 11.3 0.00 0.00 0.00 55 1017.2
20260901094803 31 295 3.2 11.3 0.00 0.00 0.00 55 1017.3
20260901094703 31 294 3.2 11.3 0.00 0.00 0.00 55 1017.2
20260901094603 31 295 3.2 11.3 0.00 0.00 0.00 55 1017.3
20260901094503 31 298 4.8 12.9 0.00 0.00 0.00 55 1017.2
20260901094403 31 299 3.2 12.9 0.00 0.00 0.00 55 1017.3
20260901094303 31 298 3.2 12.9 0.00 0.00 0.00 54 1017.3
20260901094203 30 298 3.2 12.9 0.00 0.00 0.00 54 1017.2
20260901094103 31 298 3.2 12.9 0.00 0.00 0.00 54 1017.3
20260901094003 30 298 3.2 12.9 0.00 0.00 0.00 54 1017.3
20260901093903 30 297 3.2 12.9 0.00 0.00 0.00 54 1017.3
20260901093803 30 297 3.2 12.9 0.00 0.00 0.00 54 1017.3
20260901093703 30 298 3.2 12.9 0.00 0.00 0.00 54 1017.4
20260901093603 30 299 4.8 12.9 0.00 0.00 0.00 55 1017.4
20260901093503 30 298 3.2 16.1 0.00 0.00 0.00 55 1017.3
20260901093403 30 299 4.8 16.1 0.00 0.00 0.00 55 1017.4
20260901093303 30 298 4.8 16.1 0.00 0.00 0.00 56 1017.4
20260901093203 30 300 4.8 16.1 0.00 0.00 0.00 56 1017.5
20260901093103 30 301 4.8 16.1 0.00 0.00 0.00 56 1017.4
20260901093003 30 302 4.8 16.1 0.00 0.00 0.00 56 1017.3
20260901092903 30 302 4.8 16.1 0.00 0.00 0.00 56 1017.4
20260901092803 30 302 4.8 16.1 0.00 0.00 0.00 56 1017.4
20260901092703 30 301 4.8 16.1 0.00 0.00 0.00 56 1017.4
20260901092603 30 302 4.8 16.1 0.00 0.00 0.00 56 1017.3
20260901092503 30 304 4.8 14.5 0.00 0.00 0.00 56 1017.3
20260901092403 30 303 3.2 14.5 0.00 0.00 0.00 56 1017.3
20260901092305 30 302 3.2 14.5 0.00 0.00 0.00 56 1017.3
20260901092203 30 302 4.8 17.7 0.00 0.00 0.00 56 1017.4
20260901092103 30 302 4.8 17.7 0.00 0.00 0.00 56 1017.4
20260901092003 30 301 4.8 17.7 0.00 0.00 0.00 56 1017.3
20260901091903 30 302 6.4 17.7 0.00 0.00 0.00 56 1017.3
20260901091803 30 301 6.4 17.7 0.00 0.00 0.00 56 1017.3
20260901091703 30 301 8.0 17.7 0.00 0.00 0.00 56 1017.4
20260901091603 30 300 8.0 17.7 0.00 0.00 0.00 56 1017.3
20260901091503 30 298 8.0 17.7 0.00 0.00 0.00 56 1017.3
20260901091403 30 298 8.0 17.7 0.00 0.00 0.00 56 1017.4
20260901091303 30 298 8.0 17.7 0.00 0.00 0.00 56 1017.3
20260901091203 30 297 6.4 14.5 0.00 0.00 0.00 56 1017.3
20260901091103 30 296 6.4 14.5 0.00 0.00 0.00 56 1017.3
20260901091003 30 296 6.4 14.5 0.00 0.00 0.00 56 1017.3
20260901090903 30 294 4.8 14.5 0.00 0.00 0.00 56 1017.3
20260901090803 30 294 4.8 12.9 0.00 0.00 0.00 57 1017.3
20260901090703 30 292 4.8 12.9 0.00 0.00 0.00 57 1017.3
20260901090603 30 292 3.2 12.9 0.00 0.00 0.00 57 1017.3
20260901090503 30 292 3.2 11.3 0.00 0.00 0.00 57 1017.2
20260901090403 30 294 4.8 11.3 0.00 0.00 0.00 57 1017.2
20260901090303 30 295 4.8 11.3 0.00 0.00 0.00 57 1017.3
20260901090203 30 295 4.8 11.3 0.00 0.00 0.00 56 1017.2
20260901090003 30 295 4.8 11.3 0.00 0.00 0.00 56 1017.3
20260901085903 30 294 4.8 11.3 0.00 0.00 0.00 56 1017.4
20260901085803 30 295 4.8 11.3 0.00 0.00 0.00 57 1017.5
20260901085703 30 295 4.8 11.3 0.00 0.00 0.00 57 1017.4
20260901085603 30 296 4.8 19.3 0.00 0.00 0.00 57 1017.5
20260901085503 30 297 4.8 19.3 0.00 0.00 0.00 57 1017.5
20260901085403 30 297 4.8 19.3 0.00 0.00 0.00 57 1017.4
20260901085305 30 297 4.8 19.3 0.00 0.00 0.00 57 1017.4
20260901085203 30 297 3.2 19.3 0.00 0.00 0.00 57 1017.3
20260901085103 30 299 3.2 19.3 0.00 0.00 0.00 57 1017.4
20260901085003 30 299 4.8 19.3 0.00 0.00 0.00 57 1017.4
20260901084903 30 299 4.8 19.3 0.00 0.00 0.00 57 1017.4
20260901084803 30 299 4.8 19.3 0.00 0.00 0.00 57 1017.2
20260901084704 30 300 4.8 19.3 0.00 0.00 0.00 57 1017.3
20260901084604 30 300 3.2 14.5 0.00 0.00 0.00 57 1017.2
20260901084504 30 299 3.2 12.9 0.00 0.00 0.00 58 1017.2
20260901084404 30 299 3.2 12.9 0.00 0.00 0.00 57 1017.2
20260901084304 30 299 3.2 12.9 0.00 0.00 0.00 57 1017.2
20260901084204 30 301 3.2 12.9 0.00 0.00 0.00 57 1017.2
20260901084104 30 301 3.2 12.9 0.00 0.00 0.00 58 1017.3
20260901084004 30 302 3.2 17.7 0.00 0.00 0.00 58 1017.4
20260901083904 30 303 3.2 17.7 0.00 0.00 0.00 58 1017.3
20260901083804 30 300 4.8 17.7 0.00 0.00 0.00 58 1017.3
20260901083704 30 301 4.8 17.7 0.00 0.00 0.00 57 1017.3
20260901083604 30 303 4.8 17.7 0.00 0.00 0.00 57 1017.2
20260901083504 30 302 6.4 17.7 0.00 0.00 0.00 57 1017.2
20260901083404 30 303 6.4 17.7 0.00 0.00 0.00 57 1017.2
20260901083304 30 303 6.4 17.7 0.00 0.00 0.00 57 1017.3
20260901083204 30 302 8.0 17.7 0.00 0.00 0.00 57 1017.3
20260901083104 30 302 8.0 17.7 0.00 0.00 0.00 57 1017.3
20260901083004 30 301 6.4 14.5 0.00 0.00 0.00 58 1017.3
20260901082904 30 301 8.0 19.3 0.00 0.00 0.00 58 1017.3
20260901082804 30 302 6.4 19.3 0.00 0.00 0.00 58 1017.3
20260901082704 30 302 6.4 19.3 0.00 0.00 0.00 57 1017.4
20260901082604 30 300 6.4 19.3 0.00 0.00 0.00 57 1017.3
20260901082504 30 301 6.4 19.3 0.00 0.00 0.00 57 1017.4
20260901082404 30 301 6.4 19.3 0.00 0.00 0.00 56 1017.4
20260901082306 30 301 6.4 19.3 0.00 0.00 0.00 56 1017.3
20260901082204 30 300 4.8 19.3 0.00 0.00 0.00 56 1017.2
20260901082104 30 300 4.8 19.3 0.00 0.00 0.00 57 1017.4
20260901082004 30 300 4.8 19.3 0.00 0.00 0.00 57 1017.5
20260901081904 30 299 4.8 12.9 0.00 0.00 0.00 57 1017.5
20260901081804 30 301 4.8 16.1 0.00 0.00 0.00 57 1017.4
20260901081704 30 301 4.8 16.1 0.00 0.00 0.00 57 1017.4
20260901081604 30 301 4.8 16.1 0.00 0.00 0.00 57 1017.3
20260901081504 30 301 4.8 16.1 0.00 0.00 0.00 57 1017.1
20260901081404 30 300 4.8 16.1 0.00 0.00 0.00 57 1017.3
20260901081304 30 299 4.8 16.1 0.00 0.00 0.00 57 1017.4
20260901081204 30 299 4.8 16.1 0.00 0.00 0.00 57 1017.3
20260901081104 30 298 6.4 16.1 0.00 0.00 0.00 57 1017.4
20260901081004 30 300 6.4 16.1 0.00 0.00 0.00 57 1017.3
20260901080904 30 299 6.4 16.1 0.00 0.00 0.00 57 1017.0
20260901080804 30 298 4.8 12.9 0.00 0.00 0.00 57 1017.1
20260901080704 30 298 6.4 14.5 0.00 0.00 0.00 57 1017.0
20260901080604 30 298 6.4 14.5 0.00 0.00 0.00 57 1017.1
20260901080504 30 298 6.4 14.5 0.00 0.00 0.00 57 1017.0
20260901080404 30 298 8.0 19.3 0.00 0.00 0.00 57 1017.1
20260901080304 30 298 8.0 19.3 0.00 0.00 0.00 56 1017.1
20260901080204 30 298 6.4 19.3 0.00 0.00 0.00 56 1017.1
20260901080104 30 299 6.4 19.3 0.00 0.00 0.00 56 1017.1
20260901080004 30 298 6.4 19.3 0.00 0.00 0.00 56 1017.1
20260901075904 31 298 6.4 19.3 0.00 0.00 0.00 56 1017.1
20260901075804 31 298 6.4 19.3 0.00 0.00 0.00 56 1017.2
20260901075704 31 297 6.4 19.3 0.00 0.00 0.00 56 1017.0
20260901075604 31 298 6.4 19.3 0.00 0.00 0.00 56 1017.0
20260901075504 31 297 6.4 19.3 0.00 0.00 0.00 56 1017.1
20260901075404 31 297 6.4 17.7 0.00 0.00 0.00 56 1017.1
20260901075307 31 297 6.4 17.7 0.00 0.00 0.00 57 1017.0
20260901075204 31 297 6.4 17.7 0.00 0.00 0.00 56 1017.0
20260901075103 31 298 6.4 17.7 0.00 0.00 0.00 56 1017.0
20260901075003 31 298 6.4 17.7 0.00 0.00 0.00 56 1017.0
20260901074904 31 298 6.4 17.7 0.00 0.00 0.00 56 1017.2
20260901074803 31 298 6.4 14.5 0.00 0.00 0.00 57 1017.0
20260901074703 31 297 4.8 12.9 0.00 0.00 0.00 57 1017.0
20260901074604 30 298 6.4 12.9 0.00 0.00 0.00 57 1017.1
20260901074504 30 299 4.8 12.9 0.00 0.00 0.00 57 1016.9
20260901074403 30 299 4.8 12.9 0.00 0.00 0.00 57 1017.1
20260901074304 30 300 4.8 12.9 0.00 0.00 0.00 57 1017.1
20260901074203 30 299 4.8 12.9 0.00 0.00 0.00 57 1017.0
20260901074103 30 298 3.2 12.9 0.00 0.00 0.00 58 1017.0
20260901074004 30 298 3.2 12.9 0.00 0.00 0.00 58 1017.0
20260901073903 30 299 4.8 12.9 0.00 0.00 0.00 58 1017.0
20260901073803 30 299 4.8 12.9 0.00 0.00 0.00 58 1017.0
20260901073703 30 297 4.8 12.9 0.00 0.00 0.00 58 1017.1
20260901073603 30 295 4.8 12.9 0.00 0.00 0.00 59 1017.1
20260901073503 30 295 4.8 12.9 0.00 0.00 0.00 59 1017.0
20260901073403 30 297 4.8 16.1 0.00 0.00 0.00 59 1017.0
20260901073303 30 296 6.4 17.7 0.00 0.00 0.00 59 1017.1
20260901073203 30 297 6.4 17.7 0.00 0.00 0.00 60 1017.2
20260901073103 30 296 6.4 17.7 0.00 0.00 0.00 59 1017.0
20260901073004 30 296 8.0 17.7 0.00 0.00 0.00 60 1017.1
20260901072903 30 296 6.4 17.7 0.00 0.00 0.00 59 1017.1
20260901072803 30 296 8.0 17.7 0.00 0.00 0.00 59 1017.1
20260901072703 30 297 8.0 17.7 0.00 0.00 0.00 60 1017.1
20260901072603 30 299 8.0 17.7 0.00 0.00 0.00 60 1017.1
20260901072503 30 299 8.0 17.7 0.00 0.00 0.00 60 1017.3
20260901072403 30 298 8.0 17.7 0.00 0.00 0.00 60 1017.2
20260901072308 30 298 8.0 17.7 0.00 0.00 0.00 60 1017.2
20260901072203 30 299 8.0 17.7 0.00 0.00 0.00 60 1017.2
20260901072103 30 299 8.0 17.7 0.00 0.00 0.00 60 1017.2
20260901072003 30 299 8.0 19.3 0.00 0.00 0.00 60 1017.1
20260901071903 30 299 9.7 19.3 0.00 0.00 0.00 60 1017.1
20260901071804 30 300 9.7 19.3 0.00 0.00 0.00 60 1017.0
20260901071703 30 300 8.0 19.3 0.00 0.00 0.00 60 1017.1
20260901071603 30 299 8.0 19.3 0.00 0.00 0.00 60 1017.0
20260901071503 30 299 8.0 19.3 0.00 0.00 0.00 59 1016.9
20260901071403 30 300 8.0 19.3 0.00 0.00 0.00 59 1017.0
20260901071303 30 298 6.4 19.3 0.00 0.00 0.00 60 1017.1
20260901071203 30 298 6.4 19.3 0.00 0.00 0.00 59 1017.1
20260901071103 30 299 6.4 19.3 0.00 0.00 0.00 59 1017.0
20260901071003 30 301 4.8 14.5 0.00 0.00 0.00 59 1016.9
20260901070903 30 302 4.8 14.5 0.00 0.00 0.00 59 1017.0
20260901070803 30 302 6.4 19.3 0.00 0.00 0.00 59 1016.9
20260901070703 30 301 6.4 19.3 0.00 0.00 0.00 59 1016.9
20260901070603 30 301 8.0 19.3 0.00 0.00 0.00 59 1017.0
20260901070503 30 300 8.0 19.3 0.00 0.00 0.00 59 1017.0
20260901070403 30 299 8.0 19.3 0.00 0.00 0.00 59 1017.0
20260901070303 30 300 9.7 19.3 0.00 0.00 0.00 59 1016.9
20260901070203 30 301 9.7 19.3 0.00 0.00 0.00 59 1016.9
20260901070103 30 302 9.7 19.3 0.00 0.00 0.00 59 1016.9
20260901070003 30 301 9.7 19.3 0.00 0.00 0.00 58 1016.9
20260901065903 30 301 9.7 19.3 0.00 0.00 0.00 58 1017.0
20260901065803 30 300 9.7 19.3 0.00 0.00 0.00 58 1016.9
20260901065703 30 300 8.0 19.3 0.00 0.00 0.00 58 1016.9
20260901065603 30 299 8.0 19.3 0.00 0.00 0.00 59 1016.9
20260901065503 30 300 8.0 16.1 0.00 0.00 0.00 58 1016.9
20260901065403 30 300 8.0 16.1 0.00 0.00 0.00 58 1017.0
20260901065305 30 300 8.0 16.1 0.00 0.00 0.00 58 1017.0
20260901065203 31 301 8.0 17.7 0.00 0.00 0.00 58 1017.0
20260901065103 31 299 6.4 17.7 0.00 0.00 0.00 58 1017.0
20260901065003 31 300 6.4 17.7 0.00 0.00 0.00 58 1017.0
20260901064903 31 300 6.4 17.7 0.00 0.00 0.00 58 1017.0
20260901064803 31 300 6.4 17.7 0.00 0.00 0.00 58 1016.9
20260901064703 31 300 6.4 17.7 0.00 0.00 0.00 58 1016.7
20260901064603 31 301 6.4 17.7 0.00 0.00 0.00 59 1016.7
20260901064504 31 299 6.4 17.7 0.00 0.00 0.00 59 1016.7
20260901064403 30 299 6.4 17.7 0.00 0.00 0.00 59 1016.8
20260901064303 30 300 6.4 17.7 0.00 0.00 0.00 60 1016.8
20260901064203 30 297 6.4 14.5 0.00 0.00 0.00 60 1016.7
20260901064103 30 297 6.4 14.5 0.00 0.00 0.00 60 1016.8
20260901064003 30 297 6.4 16.1 0.00 0.00 0.00 60 1016.8
20260901063903 30 298 6.4 16.1 0.00 0.00 0.00 60 1016.9
20260901063803 30 297 6.4 16.1 0.00 0.00 0.00 61 1016.8
20260901063703 30 297 6.4 16.1 0.00 0.00 0.00 61 1016.8
20260901063603 30 297 6.4 16.1 0.00 0.00 0.00 62 1016.8
20260901063503 30 298 6.4 16.1 0.00 0.00 0.00 62 1016.9
20260901063403 30 297 6.4 16.1 0.00 0.00 0.00 62 1016.9
20260901063303 30 298 6.4 16.1 0.00 0.00 0.00 62 1016.9
20260901063203 30 298 8.0 16.1 0.00 0.00 0.00 63 1016.8
20260901063103 30 298 8.0 16.1 0.00 0.00 0.00 63 1016.8
20260901063003 30 297 8.0 16.1 0.00 0.00 0.00 63 1016.8
20260901062903 30 298 8.0 17.7 0.00 0.00 0.00 63 1016.7
20260901062803 30 298 8.0 17.7 0.00 0.00 0.00 63 1016.8
20260901062703 30 299 8.0 17.7 0.00 0.00 0.00 63 1016.7
20260901062603 30 300 8.0 17.7 0.00 0.00 0.00 63 1016.8
20260901062503 30 301 9.7 17.7 0.00 0.00 0.00 63 1016.8
20260901062403 30 301 9.7 17.7 0.00 0.00 0.00 63 1016.9
20260901062309 30 300 9.7 17.7 0.00 0.00 0.00 63 1016.8
20260901062203 30 301 8.0 17.7 0.00 0.00 0.00 64 1016.8
20260901062103 29 301 8.0 17.7 0.00 0.00 0.00 64 1016.9
20260901062003 29 301 8.0 17.7 0.00 0.00 0.00 64 1017.0
20260901061903 29 301 8.0 16.1 0.00 0.00 0.00 65 1016.9
20260901061804 29 301 8.0 16.1 0.00 0.00 0.00 65 1017.0
20260901061704 29 300 8.0 14.5 0.00 0.00 0.00 66 1016.9
20260901061604 29 297 8.0 14.5 0.00 0.00 0.00 66 1016.8
20260901061504 29 297 8.0 17.7 0.00 0.00 0.00 66 1016.9
20260901061404 28 297 8.0 17.7 0.00 0.00 0.00 66 1016.9
20260901061304 28 297 8.0 17.7 0.00 0.00 0.00 66 1016.9
20260901061204 28 298 8.0 19.3 0.00 0.00 0.00 66 1017.0
20260901061104 28 297 8.0 19.3 0.00 0.00 0.00 66 1017.0
20260901061004 28 296 8.0 19.3 0.00 0.00 0.00 66 1017.0
20260901060904 28 296 8.0 19.3 0.00 0.00 0.00 66 1017.0
20260901060804 28 297 8.0 19.3 0.00 0.00 0.00 66 1017.0
20260901060704 28 298 8.0 19.3 0.00 0.00 0.00 66 1016.9
20260901060604 28 299 8.0 19.3 0.00 0.00 0.00 66 1017.0
20260901060504 28 298 8.0 19.3 0.00 0.00 0.00 66 1017.0
20260901060404 28 298 9.7 19.3 0.00 0.00 0.00 66 1016.9
20260901060304 28 298 9.7 19.3 0.00 0.00 0.00 66 1016.9
20260901060204 28 297 9.7 20.9 0.00 0.00 0.00 66 1016.9
20260901060104 28 297 8.0 20.9 0.00 0.00 0.00 66 1016.9
20260901060004 28 300 8.0 20.9 0.00 0.00 0.00 66 1016.9
20260901055904 28 299 8.0 20.9 0.00 0.00 0.00 67 1017.0
20260901055804 28 299 8.0 20.9 0.00 0.00 0.00 67 1017.0
20260901055704 28 299 8.0 20.9 0.00 0.00 0.00 67 1016.8
20260901055604 28 299 8.0 20.9 0.00 0.00 0.00 67 1016.9
20260901055504 28 299 8.0 20.9 0.00 0.00 0.00 68 1016.9
20260901055404 28 298 6.4 20.9 0.00 0.00 0.00 68 1016.8
20260901055306 28 299 6.4 20.9 0.00 0.00 0.00 68 1016.7
20260901055204 28 299 6.4 17.7 0.00 0.00 0.00 69 1016.8
20260901055104 28 299 6.4 17.7 0.00 0.00 0.00 68 1016.8
20260901055004 28 298 6.4 17.7 0.00 0.00 0.00 69 1016.8
20260901054904 28 299 6.4 17.7 0.00 0.00 0.00 69 1016.8
20260901054804 28 300 6.4 17.7 0.00 0.00 0.00 69 1016.8
20260901054704 28 299 8.0 17.7 0.00 0.00 0.00 69 1016.8
20260901054604 28 300 6.4 17.7 0.00 0.00 0.00 69 1016.8
20260901054504 28 300 6.4 17.7 0.00 0.00 0.00 69 1016.7
20260901054404 28 300 8.0 17.7 0.00 0.00 0.00 69 1016.7
20260901054304 28 298 8.0 17.7 0.00 0.00 0.00 70 1016.7
20260901054204 28 298 8.0 17.7 0.00 0.00 0.00 70 1016.7
20260901054104 28 299 8.0 17.7 0.00 0.00 0.00 70 1016.7
20260901054004 28 299 8.0 17.7 0.00 0.00 0.00 70 1016.7
20260901053904 28 299 8.0 17.7 0.00 0.00 0.00 70 1016.7
20260901053804 28 298 8.0 17.7 0.00 0.00 0.00 70 1016.8
20260901053704 28 298 8.0 20.9 0.00 0.00 0.00 70 1016.8
20260901053604 28 298 8.0 20.9 0.00 0.00 0.00 70 1016.6
20260901053504 28 299 8.0 20.9 0.00 0.00 0.00 70 1016.7
20260901053404 27 300 9.7 20.9 0.00 0.00 0.00 70 1016.6
20260901053304 28 302 8.0 20.9 0.00 0.00 0.00 70 1016.6
20260901053204 28 303 8.0 20.9 0.00 0.00 0.00 70 1016.8
20260901053104 27 301 8.0 20.9 0.00 0.00 0.00 70 1016.7
20260901053004 27 301 8.0 20.9 0.00 0.00 0.00 70 1016.5
20260901052904 28 299 8.0 20.9 0.00 0.00 0.00 70 1016.6
20260901052804 27 299 8.0 20.9 0.00 0.00 0.00 70 1016.7
20260901052704 27 300 8.0 17.7 0.00 0.00 0.00 70 1016.7
20260901052604 27 299 8.0 17.7 0.00 0.00 0.00 70 1016.6
20260901052504 27 299 8.0 17.7 0.00 0.00 0.00 70 1016.6
20260901052404 27 299 8.0 17.7 0.00 0.00 0.00 70 1016.6
20260901052306 27 298 9.7 17.7 0.00 0.00 0.00 70 1016.6
20260901052203 27 298 8.0 17.7 0.00 0.00 0.00 70 1016.7
20260901052103 27 299 9.7 17.7 0.00 0.00 0.00 70 1016.6
20260901052004 27 299 9.7 17.7 0.00 0.00 0.00 70 1016.6
20260901051904 27 299 9.7 17.7 0.00 0.00 0.00 70 1016.7
20260901051803 27 298 8.0 17.7 0.00 0.00 0.00 70 1016.6
20260901051703 27 297 8.0 17.7 0.00 0.00 0.00 70 1016.5
20260901051603 27 297 8.0 17.7 0.00 0.00 0.00 70 1016.5
20260901051503 27 299 8.0 20.9 0.00 0.00 0.00 70 1016.5
20260901051403 27 300 8.0 20.9 0.00 0.00 0.00 70 1016.5
20260901051303 27 300 8.0 20.9 0.00 0.00 0.00 70 1016.5
20260901051203 27 302 8.0 20.9 0.00 0.00 0.00 70 1016.5
20260901051103 27 305 8.0 20.9 0.00 0.00 0.00 70 1016.5
20260901051003 27 305 8.0 20.9 0.00 0.00 0.00 70 1016.6
20260901050903 27 306 8.0 20.9 0.00 0.00 0.00 70 1016.6
20260901050803 27 308 8.0 20.9 0.00 0.00 0.00 70 1016.5
20260901050703 27 308 8.0 20.9 0.00 0.00 0.00 70 1016.5
20260901050603 27 309 8.0 20.9 0.00 0.00 0.00 71 1016.5
20260901050503 27 307 8.0 17.7 0.00 0.00 0.00 71 1016.5
20260901050403 27 306 8.0 17.7 0.00 0.00 0.00 71 1016.6
20260901050303 27 306 8.0 17.7 0.00 0.00 0.00 71 1016.6
20260901050203 27 303 8.0 17.7 0.00 0.00 0.00 71 1016.5
20260901050103 27 300 8.0 17.7 0.00 0.00 0.00 71 1016.5
20260901050003 27 299 8.0 14.5 0.00 0.00 0.00 71 1016.5
20260901045903 27 298 8.0 14.5 0.00 0.00 0.00 71 1016.5
20260901045803 27 297 8.0 14.5 0.00 0.00 0.00 71 1016.5
20260901045703 27 297 6.4 14.5 0.00 0.00 0.00 71 1016.5
20260901045603 27 297 6.4 14.5 0.00 0.00 0.00 71 1016.5
20260901045503 27 296 6.4 16.1 0.00 0.00 0.00 71 1016.5
20260901045403 27 297 6.4 16.1 0.00 0.00 0.00 71 1016.4
20260901045306 27 295 6.4 16.1 0.00 0.00 0.00 71 1016.5
20260901045203 27 296 6.4 16.1 0.00 0.00 0.00 71 1016.5
20260901045103 27 297 6.4 16.1 0.00 0.00 0.00 71 1016.4
20260901045003 27 299 6.4 16.1 0.00 0.00 0.00 71 1016.4
20260901044903 27 300 6.4 16.1 0.00 0.00 0.00 71 1016.4
20260901044803 27 301 6.4 17.7 0.00 0.00 0.00 71 1016.5
20260901044703 27 301 8.0 17.7 0.00 0.00 0.00 71 1016.5
20260901044603 27 301 8.0 17.7 0.00 0.00 0.00 71 1016.4
20260901044505 27 301 8.0 17.7 0.00 0.00 0.00 71 1016.5
20260901044403 27 300 8.0 17.7 0.00 0.00 0.00 71 1016.4
20260901044303 27 301 8.0 17.7 0.00 0.00 0.00 71 1016.5
20260901044203 27 301 8.0 17.7 0.00 0.00 0.00 71 1016.4
20260901044103 27 300 8.0 17.7 0.00 0.00 0.00 71 1016.4
20260901044003 27 301 8.0 17.7 0.00 0.00 0.00 71 1016.4
20260901043903 27 300 8.0 17.7 0.00 0.00 0.00 71 1016.3
20260901043803 27 299 8.0 17.7 0.00 0.00 0.00 71 1016.3
20260901043703 27 299 8.0 17.7 0.00 0.00 0.00 71 1016.3
20260901043603 27 297 8.0 17.7 0.00 0.00 0.00 71 1016.2
20260901043503 27 297 8.0 19.3 0.00 0.00 0.00 71 1016.3
20260901043403 27 298 9.7 19.3 0.00 0.00 0.00 71 1016.2
20260901043303 27 299 9.7 19.3 0.00 0.00 0.00 71 1016.3
20260901043203 27 298 9.7 19.3 0.00 0.00 0.00 71 1016.2
20260901043103 27 298 9.7 19.3 0.00 0.00 0.00 71 1016.3
20260901043003 27 296 9.7 19.3 0.00 0.00 0.00 71 1016.2
20260901042903 27 297 9.7 19.3 0.00 0.00 0.00 71 1016.2
20260901042803 27 297 9.7 19.3 0.00 0.00 0.00 71 1016.2
20260901042703 27 297 9.7 19.3 0.00 0.00 0.00 71 1016.3
20260901042603 27 298 9.7 19.3 0.00 0.00 0.00 71 1016.3
20260901042503 27 299 9.7 19.3 0.00 0.00 0.00 71 1016.3
20260901042403 27 298 8.0 19.3 0.00 0.00 0.00 71 1016.2
20260901042306 27 298 8.0 19.3 0.00 0.00 0.00 72 1016.3
20260901042203 27 298 8.0 19.3 0.00 0.00 0.00 72 1016.3
20260901042103 27 298 8.0 19.3 0.00 0.00 0.00 72 1016.2
20260901042003 27 300 8.0 16.1 0.00 0.00 0.00 72 1016.3
20260901041903 27 299 8.0 16.1 0.00 0.00 0.00 72 1016.2
20260901041803 27 298 8.0 14.5 0.00 0.00 0.00 72 1016.2
20260901041703 27 298 8.0 12.9 0.00 0.00 0.00 72 1016.2
20260901041603 27 298 8.0 12.9 0.00 0.00 0.00 72 1016.2
20260901041503 27 298 6.4 12.9 0.00 0.00 0.00 72 1016.2
20260901041403 27 298 6.4 12.9 0.00 0.00 0.00 72 1016.3
20260901041303 27 299 6.4 12.9 0.00 0.00 0.00 72 1016.3
20260901041203 27 300 6.4 12.9 0.00 0.00 0.00 72 1016.2
20260901041103 27 300 6.4 14.5 0.00 0.00 0.00 72 1016.3
20260901041003 27 298 6.4 14.5 0.00 0.00 0.00 72 1016.3
20260901040903 27 299 6.4 14.5 0.00 0.00 0.00 72 1016.3
20260901040803 27 299 6.4 14.5 0.00 0.00 0.00 72 1016.3
20260901040703 27 299 6.4 14.5 0.00 0.00 0.00 72 1016.3
20260901040603 27 299 6.4 14.5 0.00 0.00 0.00 72 1016.3
20260901040503 27 298 6.4 14.5 0.00 0.00 0.00 72 1016.3
20260901040403 27 299 6.4 14.5 0.00 0.00 0.00 72 1016.3
20260901040303 27 300 6.4 14.5 0.00 0.00 0.00 72 1016.4
20260901040203 27 300 6.4 14.5 0.00 0.00 0.00 72 1016.4
20260901040103 27 300 6.4 14.5 0.00 0.00 0.00 72 1016.4
20260901040003 27 300 6.4 14.5 0.00 0.00 0.00 72 1016.4
20260901035903 27 300 6.4 14.5 0.00 0.00 0.00 72 1016.3
20260901035803 27 300 6.4 14.5 0.00 0.00 0.00 72 1016.3
20260901035703 27 301 6.4 14.5 0.00 0.00 0.00 72 1016.3
20260901035603 27 300 6.4 14.5 0.00 0.00 0.00 72 1016.3
20260901035503 27 300 4.8 14.5 0.00 0.00 0.00 72 1016.3
20260901035403 27 300 6.4 14.5 0.00 0.00 0.00 72 1016.3
20260901035305 27 299 6.4 12.9 0.00 0.00 0.00 72 1016.3
20260901035203 27 299 6.4 14.5 0.00 0.00 0.00 72 1016.3
20260901035103 27 300 6.4 14.5 0.00 0.00 0.00 72 1016.4
20260901035004 27 300 6.4 14.5 0.00 0.00 0.00 72 1016.3
20260901034904 27 300 6.4 14.5 0.00 0.00 0.00 72 1016.3
20260901034804 27 300 6.4 14.5 0.00 0.00 0.00 72 1016.3
20260901034704 27 299 6.4 14.5 0.00 0.00 0.00 73 1016.3
20260901034604 27 299 6.4 14.5 0.00 0.00 0.00 73 1016.3
20260901034504 27 299 6.4 14.5 0.00 0.00 0.00 73 1016.3
20260901034404 27 298 6.4 14.5 0.00 0.00 0.00 73 1016.4
20260901034304 27 298 6.4 14.5 0.00 0.00 0.00 73 1016.4
20260901034204 27 297 6.4 14.5 0.00 0.00 0.00 73 1016.4
20260901034104 27 297 6.4 14.5 0.00 0.00 0.00 73 1016.4
20260901034004 27 297 6.4 14.5 0.00 0.00 0.00 73 1016.4
20260901033904 27 296 6.4 14.5 0.00 0.00 0.00 73 1016.4
20260901033804 27 298 6.4 14.5 0.00 0.00 0.00 73 1016.4
20260901033704 27 298 6.4 14.5 0.00 0.00 0.00 72 1016.4
20260901033604 27 299 6.4 14.5 0.00 0.00 0.00 72 1016.4
20260901033504 27 298 6.4 14.5 0.00 0.00 0.00 72 1016.4
20260901033404 27 298 6.4 14.5 0.00 0.00 0.00 72 1016.4
20260901033304 27 298 6.4 14.5 0.00 0.00 0.00 72 1016.4
20260901033204 27 298 4.8 14.5 0.00 0.00 0.00 72 1016.5
20260901033104 27 298 4.8 11.3 0.00 0.00 0.00 72 1016.5
20260901033004 27 299 4.8 11.3 0.00 0.00 0.00 72 1016.4
20260901032904 27 300 6.4 14.5 0.00 0.00 0.00 72 1016.5
20260901032804 27 299 6.4 14.5 0.00 0.00 0.00 72 1016.5
20260901032704 27 302 6.4 14.5 0.00 0.00 0.00 72 1016.4
20260901032604 27 300 6.4 14.5 0.00 0.00 0.00 72 1016.4
20260901032504 27 300 6.4 14.5 0.00 0.00 0.00 72 1016.4
20260901032404 27 301 6.4 14.5 0.00 0.00 0.00 72 1016.5
20260901032306 27 300 6.4 14.5 0.00 0.00 0.00 72 1016.5
20260901032204 27 300 6.4 14.5 0.00 0.00 0.00 72 1016.5
20260901032104 27 299 6.4 14.5 0.00 0.00 0.00 72 1016.5
20260901032004 27 299 6.4 14.5 0.00 0.00 0.00 72 1016.5
20260901031904 27 299 6.4 12.9 0.00 0.00 0.00 72 1016.4
20260901031804 27 296 4.8 12.9 0.00 0.00 0.00 72 1016.5
20260901031704 27 296 4.8 12.9 0.00 0.00 0.00 72 1016.5
20260901031604 27 297 6.4 14.5 0.00 0.00 0.00 72 1016.4
20260901031504 27 297 6.4 14.5 0.00 0.00 0.00 72 1016.3
20260901031404 27 297 6.4 14.5 0.00 0.00 0.00 72 1016.4
20260901031304 27 298 4.8 14.5 0.00 0.00 0.00 72 1016.4
20260901031204 27 298 4.8 14.5 0.00 0.00 0.00 72 1016.4
20260901031104 27 297 4.8 14.5 0.00 0.00 0.00 72 1016.4
20260901031004 27 298 4.8 14.5 0.00 0.00 0.00 72 1016.4
20260901030904 27 296 4.8 14.5 0.00 0.00 0.00 72 1016.4
20260901030804 27 294 6.4 14.5 0.00 0.00 0.00 72 1016.4
20260901030704 27 292 6.4 14.5 0.00 0.00 0.00 72 1016.4
20260901030604 27 290 6.4 14.5 0.00 0.00 0.00 72 1016.4
20260901030504 27 289 4.8 14.5 0.00 0.00 0.00 72 1016.4
20260901030404 27 289 6.4 14.5 0.00 0.00 0.00 72 1016.4
20260901030304 27 288 6.4 14.5 0.00 0.00 0.00 72 1016.4
20260901030203 27 290 6.4 14.5 0.00 0.00 0.00 72 1016.4
20260901030103 27 294 6.4 14.5 0.00 0.00 0.00 72 1016.4
20260901030004 27 294 6.4 14.5 0.00 0.00 0.00 72 1016.4
20260901025903 27 295 6.4 14.5 0.00 0.00 0.00 72 1016.4
20260901025803 27 295 6.4 14.5 0.00 0.00 0.00 72 1016.4
20260901025703 27 298 6.4 14.5 0.00 0.00 0.00 72 1016.4
20260901025604 27 299 6.4 14.5 0.00 0.00 0.00 72 1016.3
20260901025504 27 300 6.4 17.7 0.00 0.00 0.00 72 1016.3
20260901025404 27 302 6.4 17.7 0.00 0.00 0.00 72 1016.4
20260901025306 27 302 8.0 17.7 0.00 0.00 0.00 72 1016.5
20260901025203 27 302 8.0 17.7 0.00 0.00 0.00 72 1016.3
20260901025104 27 301 6.4 17.7 0.00 0.00 0.00 72 1016.5
20260901025004 27 301 8.0 17.7 0.00 0.00 0.00 72 1016.4
20260901024903 27 301 8.0 17.7 0.00 0.00 0.00 72 1016.5
20260901024803 27 302 8.0 17.7 0.00 0.00 0.00 72 1016.5
20260901024703 27 302 8.0 17.7 0.00 0.00 0.00 72 1016.5
20260901024603 27 301 8.0 17.7 0.00 0.00 0.00 72 1016.6
20260901024503 27 301 6.4 14.5 0.00 0.00 0.00 72 1016.5
20260901024403 27 299 8.0 14.5 0.00 0.00 0.00 72 1016.5
20260901024303 27 300 6.4 14.5 0.00 0.00 0.00 72 1016.5
20260901024203 27 300 6.4 14.5 0.00 0.00 0.00 72 1016.4
20260901024103 27 301 6.4 14.5 0.00 0.00 0.00 72 1016.4
20260901024003 27 299 6.4 14.5 0.00 0.00 0.00 72 1016.5
20260901023903 27 299 6.4 14.5 0.00 0.00 0.00 72 1016.5
20260901023803 27 297 6.4 14.5 0.00 0.00 0.00 72 1016.4
20260901023703 27 297 6.4 14.5 0.00 0.00 0.00 72 1016.5
20260901023603 27 297 6.4 14.5 0.00 0.00 0.00 72 1016.5
20260901023503 27 296 6.4 14.5 0.00 0.00 0.00 72 1016.5
20260901023403 27 297 6.4 12.9 0.00 0.00 0.00 72 1016.5
20260901023303 27 296 4.8 12.9 0.00 0.00 0.00 72 1016.5
20260901023203 27 295 6.4 12.9 0.00 0.00 0.00 72 1016.6
20260901023103 27 296 6.4 12.9 0.00 0.00 0.00 72 1016.5
20260901023003 27 296 6.4 12.9 0.00 0.00 0.00 72 1016.5
20260901022903 27 296 4.8 12.9 0.00 0.00 0.00 72 1016.5
20260901022803 27 297 4.8 12.9 0.00 0.00 0.00 72 1016.5
20260901022703 27 299 4.8 12.9 0.00 0.00 0.00 72 1016.5
20260901022603 27 300 3.2 12.9 0.00 0.00 0.00 72 1016.5
20260901022503 27 300 3.2 12.9 0.00 0.00 0.00 72 1016.5
20260901022403 27 300 3.2 9.7 0.00 0.00 0.00 72 1016.5
20260901022305 27 299 3.2 9.7 0.00 0.00 0.00 72 1016.6
20260901022203 27 300 3.2 9.7 0.00 0.00 0.00 72 1016.6
20260901022103 27 299 1.6 8.0 0.00 0.00 0.00 72 1016.5
20260901022003 27 298 3.2 8.0 0.00 0.00 0.00 72 1016.5
20260901021903 27 295 3.2 9.7 0.00 0.00 0.00 72 1016.6
20260901021803 27 295 3.2 9.7 0.00 0.00 0.00 72 1016.6
20260901021703 27 293 3.2 9.7 0.00 0.00 0.00 72 1016.6
20260901021603 27 294 4.8 9.7 0.00 0.00 0.00 72 1016.6
20260901021503 27 294 4.8 9.7 0.00 0.00 0.00 72 1016.7
20260901021403 27 294 4.8 9.7 0.00 0.00 0.00 72 1016.6
20260901021303 27 295 4.8 9.7 0.00 0.00 0.00 72 1016.6
20260901021203 27 295 4.8 9.7 0.00 0.00 0.00 71 1016.6
20260901021103 27 296 4.8 9.7 0.00 0.00 0.00 72 1016.7
20260901021003 27 296 4.8 9.7 0.00 0.00 0.00 72 1016.7
20260901020903 27 298 4.8 9.7 0.00 0.00 0.00 72 1016.6
20260901020803 27 300 4.8 9.7 0.00 0.00 0.00 71 1016.6
20260901020703 27 300 4.8 9.7 0.00 0.00 0.00 71 1016.7
20260901020603 27 300 3.2 9.7 0.00 0.00 0.00 71 1016.6
20260901020503 27 302 3.2 9.7 0.00 0.00 0.00 71 1016.6
20260901020403 27 304 3.2 9.7 0.00 0.00 0.00 71 1016.6
20260901020303 27 301 3.2 14.5 0.00 0.00 0.00 71 1016.6
20260901020203 27 303 3.2 16.1 0.00 0.00 0.00 71 1016.6
20260901020003 27 302 4.8 16.1 0.00 0.00 0.00 71 1016.5
20260901015903 27 303 4.8 17.7 0.00 0.00 0.00 71 1016.6
20260901015803 27 301 4.8 17.7 0.00 0.00 0.00 71 1016.5
20260901015703 27 301 4.8 17.7 0.00 0.00 0.00 71 1016.6
20260901015603 27 301 6.4 17.7 0.00 0.00 0.00 71 1016.6
20260901015503 27 301 6.4 17.7 0.00 0.00 0.00 71 1016.7
20260901015403 27 299 6.4 17.7 0.00 0.00 0.00 71 1016.6
20260901015305 27 300 6.4 17.7 0.00 0.00 0.00 71 1016.6
20260901015203 27 299 6.4 17.7 0.00 0.00 0.00 71 1016.6
20260901015103 27 297 6.4 17.7 0.00 0.00 0.00 71 1016.5
20260901015003 27 297 6.4 17.7 0.00 0.00 0.00 71 1016.5
20260901014903 27 296 6.4 16.1 0.00 0.00 0.00 71 1016.5
20260901014803 27 295 6.4 16.1 0.00 0.00 0.00 71 1016.5
20260901014703 27 295 6.4 16.1 0.00 0.00 0.00 71 1016.6
20260901014603 27 295 6.4 16.1 0.00 0.00 0.00 71 1016.5
20260901014503 27 294 6.4 16.1 0.00 0.00 0.00 71 1016.5
20260901014403 27 296 6.4 20.9 0.00 0.00 0.00 71 1016.5
20260901014303 27 295 6.4 20.9 0.00 0.00 0.00 71 1016.5
20260901014203 27 295 6.4 20.9 0.00 0.00 0.00 71 1016.6
20260901014103 27 296 6.4 20.9 0.00 0.00 0.00 71 1016.5
20260901014003 27 297 6.4 20.9 0.00 0.00 0.00 71 1016.6
20260901013903 27 295 6.4 20.9 0.00 0.00 0.00 71 1016.6
20260901013803 27 298 6.4 20.9 0.00 0.00 0.00 71 1016.5
20260901013703 27 296 6.4 20.9 0.00 0.00 0.00 71 1016.5
20260901013603 27 296 6.4 20.9 0.00 0.00 0.00 71 1016.4
20260901013503 27 295 8.0 20.9 0.00 0.00 0.00 71 1016.5
20260901013403 27 297 8.0 17.7 0.00 0.00 0.00 71 1016.5
20260901013303 27 297 6.4 17.7 0.00 0.00 0.00 71 1016.5
20260901013203 27 297 6.4 17.7 0.00 0.00 0.00 71 1016.5
20260901013103 27 300 6.4 17.7 0.00 0.00 0.00 71 1016.4
20260901013003 27 299 8.0 17.7 0.00 0.00 0.00 71 1016.5
20260901012903 27 301 6.4 17.7 0.00 0.00 0.00 71 1016.4
20260901012803 27 299 6.4 19.3 0.00 0.00 0.00 71 1016.5
20260901012703 27 301 6.4 19.3 0.00 0.00 0.00 71 1016.4
20260901012603 27 300 6.4 19.3 0.00 0.00 0.00 71 1016.4
20260901012503 27 302 6.4 19.3 0.00 0.00 0.00 71 1016.4
20260901012403 27 300 6.4 19.3 0.00 0.00 0.00 72 1016.4
20260901012306 27 301 6.4 19.3 0.00 0.00 0.00 72 1016.4
20260901012203 27 301 6.4 24.1 0.00 0.00 0.00 72 1016.4
20260901012103 27 300 6.4 24.1 0.00 0.00 0.00 72 1016.4
20260901012003 27 300 6.4 24.1 0.00 0.00 0.00 72 1016.4
20260901011903 27 300 6.4 24.1 0.00 0.00 0.00 72 1016.4
20260901011803 27 301 6.4 24.1 0.00 0.00 0.00 72 1016.4
20260901011703 27 302 6.4 24.1 0.00 0.00 0.00 72 1016.4
20260901011603 27 304 6.4 24.1 0.00 0.00 0.00 72 1016.4
20260901011503 27 304 6.4 24.1 0.00 0.00 0.00 72 1016.4
20260901011404 27 304 6.4 24.1 0.00 0.00 0.00 72 1016.3
20260901011304 27 303 6.4 24.1 0.00 0.00 0.00 72 1016.3
20260901011204 27 304 4.8 16.1 0.00 0.00 0.00 72 1016.3
20260901011104 27 303 4.8 16.1 0.00 0.00 0.00 72 1016.3
20260901011004 27 304 4.8 16.1 0.00 0.00 0.00 72 1016.3
20260901010904 27 304 4.8 16.1 0.00 0.00 0.00 72 1016.2
20260901010804 27 303 4.8 16.1 0.00 0.00 0.00 72 1016.3
20260901010704 27 299 4.8 16.1 0.00 0.00 0.00 72 1016.3
20260901010604 27 300 6.4 17.7 0.00 0.00 0.00 72 1016.3
20260901010504 27 300 6.4 17.7 0.00 0.00 0.00 72 1016.3
20260901010404 27 300 6.4 17.7 0.00 0.00 0.00 72 1016.3
20260901010304 27 301 8.0 17.7 0.00 0.00 0.00 72 1016.3
20260901010204 27 300 8.0 17.7 0.00 0.00 0.00 72 1016.2
20260901010104 27 298 6.4 17.7 0.00 0.00 0.00 72 1016.3
20260901010004 27 298 6.4 17.7 0.00 0.00 0.00 72 1016.3
20260901005904 27 299 6.4 17.7 0.00 0.00 0.00 72 1016.3
20260901005804 27 299 6.4 17.7 0.00 0.00 0.00 72 1016.2
20260901005704 27 302 6.4 17.7 0.00 0.00 0.00 72 1016.2
20260901005604 27 301 6.4 17.7 0.00 0.00 0.00 72 1016.2
20260901005504 27 302 4.8 17.7 0.00 0.00 0.00 72 1016.3
20260901005404 27 303 4.8 17.7 0.00 0.00 0.00 72 1016.2
20260901005306 27 301 4.8 17.7 0.00 0.00 0.00 72 1016.1
20260901005204 27 300 4.8 17.7 0.00 0.00 0.00 72 1016.2
20260901005104 27 301 4.8 17.7 0.00 0.00 0.00 72 1016.3
20260901005004 27 301 4.8 14.5 0.00 0.00 0.00 72 1016.3
20260901004904 27 301 4.8 14.5 0.00 0.00 0.00 71 1016.4
20260901004804 27 300 4.8 14.5 0.00 0.00 0.00 71 1016.3
20260901004704 27 298 4.8 14.5 0.00 0.00 0.00 71 1016.3
20260901004604 27 296 4.8 14.5 0.00 0.00 0.00 71 1016.3
20260901004504 27 297 4.8 12.9 0.00 0.00 0.00 71 1016.3
20260901004404 27 297 6.4 17.7 0.00 0.00 0.00 71 1016.3
20260901004304 27 296 6.4 17.7 0.00 0.00 0.00 71 1016.4
20260901004204 27 296 6.4 17.7 0.00 0.00 0.00 71 1016.4
20260901004104 27 297 4.8 17.7 0.00 0.00 0.00 71 1016.4
20260901004004 27 296 6.4 17.7 0.00 0.00 0.00 71 1016.3
20260901003904 27 295 6.4 17.7 0.00 0.00 0.00 71 1016.4
20260901003804 27 295 6.4 17.7 0.00 0.00 0.00 71 1016.3
20260901003704 27 296 6.4 17.7 0.00 0.00 0.00 71 1016.3
20260901003604 27 295 4.8 17.7 0.00 0.00 0.00 71 1016.3
20260901003504 27 295 6.4 17.7 0.00 0.00 0.00 70 1016.3
20260901003404 27 295 4.8 14.5 0.00 0.00 0.00 70 1016.2
20260901003304 27 296 4.8 14.5 0.00 0.00 0.00 70 1016.3
20260901003204 27 295 4.8 14.5 0.00 0.00 0.00 70 1016.3
20260901003104 27 296 4.8 14.5 0.00 0.00 0.00 70 1016.3
20260901003004 27 296 4.8 14.5 0.00 0.00 0.00 70 1016.3
20260901002904 27 296 4.8 11.3 0.00 0.00 0.00 70 1016.3
20260901002804 27 297 4.8 11.3 0.00 0.00 0.00 70 1016.3
20260901002703 27 295 4.8 11.3 0.00 0.00 0.00 70 1016.3
20260901002603 27 295 4.8 11.3 0.00 0.00 0.00 70 1016.2
20260901002504 27 295 4.8 11.3 0.00 0.00 0.00 70 1016.2
20260901002403 27 296 4.8 11.3 0.00 0.00 0.00 70 1016.2
20260901002305 27 294 4.8 11.3 0.00 0.00 0.00 70 1016.2
20260901002204 27 295 4.8 11.3 0.00 0.00 0.00 71 1016.2
20260901002103 27 293 4.8 11.3 0.00 0.00 0.00 71 1016.2
20260901002004 27 291 3.2 11.3 0.00 0.00 0.00 71 1016.2
20260901001903 27 292 4.8 11.3 0.00 0.00 0.00 71 1016.2
20260901001804 27 292 4.8 11.3 0.00 0.00 0.00 71 1016.2
20260901001703 27 292 4.8 11.3 0.00 0.00 0.00 71 1016.2
20260901001604 27 292 4.8 9.7 0.00 0.00 0.00 71 1016.2
20260901001504 27 292 4.8 9.7 0.00 0.00 0.00 71 1016.2
20260901001403 27 292 3.2 9.7 0.00 0.00 0.00 71 1016.2
20260901001303 27 296 3.2 14.5 0.00 0.00 0.00 71 1016.3
20260901001203 27 298 3.2 14.5 0.00 0.00 0.00 71 1016.3
20260901001104 27 298 3.2 14.5 0.00 0.00 0.00 70 1016.2
20260901001003 27 300 3.2 14.5 0.00 0.00 0.00 70 1016.2
20260901000903 27 300 3.2 14.5 0.00 0.00 0.00 70 1016.2
20260901000803 27 300 3.2 14.5 0.00 0.00 0.00 70 1016.2
20260901000703 27 301 3.2 14.5 0.00 0.00 0.00 70 1016.2
20260901000603 27 304 4.8 14.5 0.00 0.00 0.00 70 1016.1
20260901000503 27 303 4.8 14.5 0.00 0.00 0.00 70 1016.2
20260901000405 27 301 4.8 14.5 0.00 0.00 0.00 70 1016.2
20260901000303 27 299 6.4 14.5 0.00 0.00 0.00 70 1016.2
20260901000204 27 298 6.4 14.5 0.00 0.00 0.00 70 1016.2
20260901000103 27 299 6.4 14.5 0.00 0.00 0.00 70 1016.1
20260901000003 27 299 6.4 14.5 0.00 0.00 0.00 70 1016.1
20260831235903 27 298 6.4 14.5 0.00 0.00 0.00 70 1016.2
20260831235803 27 298 8.0 14.5 0.00 0.00 0.00 71 1016.2
20260831235703 27 299 8.0 14.5 0.00 0.00 0.00 71 1016.2
20260831235603 27 297 8.0 14.5 0.00 0.00 0.00 71 1016.2
20260831235504 27 297 8.0 14.5 0.00 0.00 0.00 71 1016.2
20260831235403 27 297 6.4 14.5 0.00 0.00 0.00 71 1016.2
20260831235306 27 297 6.4 14.5 0.00 0.00 0.00 71 1016.3
20260831235203 27 297 6.4 14.5 0.00 0.00 0.00 71 1016.2
20260831235103 27 297 6.4 14.5 0.00 0.00 0.00 71 1016.2
20260831235003 27 296 6.4 14.5 0.00 0.00 0.00 71 1016.2
20260831234903 27 297 6.4 14.5 0.00 0.00 0.00 72 1016.2
20260831234803 27 297 6.4 14.5 0.00 0.00 0.00 71 1016.2
20260831234703 27 295 6.4 11.3 0.00 0.00 0.00 72 1016.2
20260831234603 27 296 6.4 11.3 0.00 0.00 0.00 72 1016.2
20260831234503 27 296 6.4 11.3 0.00 0.00 0.00 72 1016.1
20260831234403 27 296 6.4 11.3 0.00 0.00 0.00 72 1016.0
20260831234303 27 296 6.4 11.3 0.00 0.00 0.00 72 1016.1
20260831234203 27 296 6.4 11.3 0.00 0.00 0.00 71 1016.2
20260831234103 27 296 6.4 14.5 0.00 0.00 0.00 72 1016.2
20260831234003 27 296 6.4 14.5 0.00 0.00 0.00 71 1016.1
20260831233903 27 296 8.0 16.1 0.00 0.00 0.00 71 1016.1
20260831233803 27 297 8.0 16.1 0.00 0.00 0.00 71 1016.1
20260831233703 27 299 8.0 16.1 0.00 0.00 0.00 71 1016.1
20260831233603 27 299 8.0 16.1 0.00 0.00 0.00 71 1016.2
20260831233503 27 300 8.0 16.1 0.00 0.00 0.00 71 1016.2
20260831233403 27 300 8.0 16.1 0.00 0.00 0.00 71 1016.3
20260831233303 27 300 8.0 16.1 0.00 0.00 0.00 71 1016.2
20260831233203 27 300 8.0 16.1 0.00 0.00 0.00 71 1016.3
20260831233103 27 300 8.0 16.1 0.00 0.00 0.00 71 1016.2
20260831233003 27 300 8.0 16.1 0.00 0.00 0.00 71 1016.2
20260831232903 27 300 8.0 14.5 0.00 0.00 0.00 71 1016.3
20260831232803 27 299 8.0 12.9 0.00 0.00 0.00 71 1016.3
20260831232703 27 298 8.0 12.9 0.00 0.00 0.00 71 1016.2
20260831232603 27 297 6.4 12.9 0.00 0.00 0.00 71 1016.2
20260831232503 27 296 6.4 12.9 0.00 0.00 0.00 71 1016.2
20260831232403 27 297 6.4 12.9 0.00 0.00 0.00 70 1016.3
20260831232305 28 299 8.0 14.5 0.00 0.00 0.00 70 1016.3
20260831232203 27 299 8.0 14.5 0.00 0.00 0.00 70 1016.2
20260831232103 27 300 8.0 14.5 0.00 0.00 0.00 70 1016.2
20260831232003 27 300 8.0 14.5 0.00 0.00 0.00 70 1016.2
20260831231903 28 301 8.0 14.5 0.00 0.00 0.00 70 1016.2
20260831231803 28 302 8.0 14.5 0.00 0.00 0.00 70 1016.3
20260831231703 27 303 8.0 14.5 0.00 0.00 0.00 70 1016.2
20260831231603 28 303 8.0 14.5 0.00 0.00 0.00 70 1016.2
20260831231504 28 303 9.7 14.5 0.00 0.00 0.00 70 1016.2
20260831231403 28 303 9.7 14.5 0.00 0.00 0.00 70 1016.3
20260831231304 28 301 8.0 14.5 0.00 0.00 0.00 70 1016.3
20260831231203 28 300 8.0 11.3 0.00 0.00 0.00 69 1016.2
20260831231004 28 299 6.4 14.5 0.00 0.00 0.00 69 1016.3
20260831230904 28 299 6.4 14.5 0.00 0.00 0.00 69 1016.3
20260831230804 28 300 6.4 14.5 0.00 0.00 0.00 69 1016.3
20260831230704 28 301 6.4 14.5 0.00 0.00 0.00 70 1016.4
20260831230604 28 300 6.4 14.5 0.00 0.00 0.00 70 1016.5
20260831230504 28 298 6.4 14.5 0.00 0.00 0.00 69 1016.4
20260831230403 28 298 6.4 14.5 0.00 0.00 0.00 70 1016.4
20260831230304 28 299 6.4 14.5 0.00 0.00 0.00 70 1016.4
20260831230203 28 300 6.4 12.9 0.00 0.00 0.00 70 1016.4
20260831230103 28 299 6.4 12.9 0.00 0.00 0.00 70 1016.4
20260831230004 28 299 8.0 14.5 0.00 0.00 0.00 69 1016.4
20260831225903 28 299 6.4 14.5 0.00 0.00 0.00 70 1016.4
20260831225803 28 300 6.4 14.5 0.00 0.00 0.00 69 1016.4
20260831225703 28 299 8.0 14.5 0.00 0.00 0.00 69 1016.4
20260831225603 28 301 8.0 14.5 0.00 0.00 0.00 70 1016.4
20260831225503 28 302 8.0 14.5 0.00 0.00 0.00 69 1016.4
20260831225403 28 301 8.0 14.5 0.00 0.00 0.00 70 1016.4
20260831225306 28 302 8.0 14.5 0.00 0.00 0.00 70 1016.4
20260831225203 28 301 8.0 14.5 0.00 0.00 0.00 70 1016.4
20260831225103 28 301 8.0 14.5 0.00 0.00 0.00 70 1016.4
20260831225003 28 302 8.0 14.5 0.00 0.00 0.00 70 1016.4
20260831224903 28 302 8.0 14.5 0.00 0.00 0.00 70 1016.4
20260831224803 28 301 8.0 14.5 0.00 0.00 0.00 70 1016.4
20260831224703 28 301 6.4 14.5 0.00 0.00 0.00 70 1016.4
20260831224603 28 300 6.4 14.5 0.00 0.00 0.00 69 1016.4
20260831224503 28 299 6.4 14.5 0.00 0.00 0.00 69 1016.4
20260831224403 28 300 6.4 12.9 0.00 0.00 0.00 69 1016.3
20260831224303 28 301 6.4 12.9 0.00 0.00 0.00 69 1016.4
20260831224203 28 301 6.4 12.9 0.00 0.00 0.00 69 1016.4
20260831224103 28 301 6.4 11.3 0.00 0.00 0.00 70 1016.4
20260831224003 28 300 6.4 11.3 0.00 0.00 0.00 70 1016.5
20260831223903 28 299 6.4 11.3 0.00 0.00 0.00 69 1016.4
20260831223803 28 300 8.0 12.9 0.00 0.00 0.00 70 1016.4
20260831223703 28 301 8.0 12.9 0.00 0.00 0.00 69 1016.4
20260831223603 28 302 8.0 12.9 0.00 0.00 0.00 70 1016.5
20260831223503 28 301 8.0 12.9 0.00 0.00 0.00 69 1016.5
20260831223403 28 301 8.0 12.9 0.00 0.00 0.00 69 1016.5
20260831223303 28 300 6.4 12.9 0.00 0.00 0.00 70 1016.5
20260831223203 28 300 6.4 12.9 0.00 0.00 0.00 69 1016.5
20260831223103 28 299 6.4 12.9 0.00 0.00 0.00 69 1016.6
20260831223003 28 300 6.4 12.9 0.00 0.00 0.00 69 1016.5
20260831222903 28 302 6.4 12.9 0.00 0.00 0.00 70 1016.5
20260831222803 28 301 6.4 12.9 0.00 0.00 0.00 69 1016.5
20260831222703 28 298 4.8 12.9 0.00 0.00 0.00 69 1016.5
20260831222603 28 297 4.8 11.3 0.00 0.00 0.00 69 1016.5
20260831222503 28 299 4.8 11.3 0.00 0.00 0.00 69 1016.5
20260831222403 28 298 4.8 11.3 0.00 0.00 0.00 69 1016.5
20260831222306 28 298 4.8 11.3 0.00 0.00 0.00 69 1016.5
20260831222203 28 299 4.8 11.3 0.00 0.00 0.00 69 1016.5
20260831222103 28 300 4.8 11.3 0.00 0.00 0.00 69 1016.5
20260831222003 28 300 4.8 11.3 0.00 0.00 0.00 69 1016.5
20260831221903 28 301 6.4 11.3 0.00 0.00 0.00 69 1016.5
20260831221803 28 300 6.4 14.5 0.00 0.00 0.00 69 1016.5
20260831221703 28 302 6.4 14.5 0.00 0.00 0.00 69 1016.5
20260831221603 28 302 4.8 14.5 0.00 0.00 0.00 69 1016.6
20260831221503 28 301 4.8 14.5 0.00 0.00 0.00 69 1016.5
20260831221403 28 301 4.8 14.5 0.00 0.00 0.00 69 1016.4
20260831221303 28 301 4.8 14.5 0.00 0.00 0.00 69 1016.5
20260831221203 28 299 4.8 14.5 0.00 0.00 0.00 69 1016.5
20260831221103 28 299 4.8 14.5 0.00 0.00 0.00 70 1016.5
20260831221003 28 299 6.4 14.5 0.00 0.00 0.00 69 1016.5
20260831220903 28 299 4.8 14.5 0.00 0.00 0.00 69 1016.5
20260831220803 28 301 4.8 11.3 0.00 0.00 0.00 69 1016.6
20260831220703 28 299 4.8 11.3 0.00 0.00 0.00 69 1016.6
20260831220603 28 301 4.8 11.3 0.00 0.00 0.00 69 1016.7
20260831220503 28 299 6.4 16.1 0.00 0.00 0.00 69 1016.6
20260831220403 28 301 6.4 16.1 0.00 0.00 0.00 69 1016.6
20260831220303 28 300 6.4 16.1 0.00 0.00 0.00 69 1016.7
20260831220203 28 300 6.4 16.1 0.00 0.00 0.00 69 1016.7
20260831220103 28 301 6.4 16.1 0.00 0.00 0.00 69 1016.7
20260831215903 28 301 6.4 16.1 0.00 0.00 0.00 69 1016.6
20260831215803 28 299 6.4 16.1 0.00 0.00 0.00 69 1016.6
20260831215703 28 301 6.4 16.1 0.00 0.00 0.00 69 1016.6
20260831215603 28 300 6.4 16.1 0.00 0.00 0.00 69 1016.7
20260831215503 28 301 6.4 12.9 0.00 0.00 0.00 69 1016.7
20260831215403 28 302 6.4 12.9 0.00 0.00 0.00 69 1016.7
20260831215306 28 300 6.4 12.9 0.00 0.00 0.00 69 1016.6
20260831215203 28 300 6.4 17.7 0.00 0.00 0.00 69 1016.7
20260831215103 28 301 6.4 17.7 0.00 0.00 0.00 69 1016.7
20260831215003 28 300 6.4 17.7 0.00 0.00 0.00 69 1016.7
20260831214903 28 300 6.4 17.7 0.00 0.00 0.00 69 1016.6
20260831214803 28 301 8.0 17.7 0.00 0.00 0.00 69 1016.7
20260831214703 28 298 8.0 17.7 0.00 0.00 0.00 69 1016.7
20260831214603 28 299 8.0 17.7 0.00 0.00 0.00 69 1016.6
20260831214503 28 298 8.0 17.7 0.00 0.00 0.00 69 1016.6
20260831214403 28 297 8.0 17.7 0.00 0.00 0.00 69 1016.5
20260831214303 28 299 9.7 17.7 0.00 0.00 0.00 70 1016.6
20260831214203 28 299 8.0 17.7 0.00 0.00 0.00 70 1016.6
20260831214103 28 299 9.7 17.7 0.00 0.00 0.00 70 1016.5
20260831214003 28 299 8.0 17.7 0.00 0.00 0.00 70 1016.5
20260831213903 28 298 8.0 17.7 0.00 0.00 0.00 70 1016.6
20260831213803 28 297 8.0 14.5 0.00 0.00 0.00 69 1016.7
20260831213703 28 298 8.0 14.5 0.00 0.00 0.00 70 1016.7
20260831213603 28 299 8.0 12.9 0.00 0.00 0.00 69 1016.8
20260831213503 28 299 6.4 12.9 0.00 0.00 0.00 69 1016.8
20260831213403 28 300 6.4 12.9 0.00 0.00 0.00 69 1016.8
20260831213303 28 299 6.4 11.3 0.00 0.00 0.00 69 1016.8
20260831213204 28 298 6.4 11.3 0.00 0.00 0.00 69 1016.7
20260831213104 28 298 6.4 12.9 0.00 0.00 0.00 69 1016.7
20260831213004 28 298 6.4 12.9 0.00 0.00 0.00 69 1016.8
20260831212904 28 298 6.4 12.9 0.00 0.00 0.00 69 1016.8
20260831212804 28 298 6.4 12.9 0.00 0.00 0.00 69 1016.8
20260831212704 28 297 6.4 12.9 0.00 0.00 0.00 69 1016.8
20260831212604 28 296 6.4 12.9 0.00 0.00 0.00 69 1016.7
20260831212504 28 295 4.8 12.9 0.00 0.00 0.00 69 1016.7
20260831212404 28 296 4.8 12.9 0.00 0.00 0.00 69 1016.8
20260831212306 28 295 4.8 12.9 0.00 0.00 0.00 69 1016.7
20260831212204 28 296 4.8 12.9 0.00 0.00 0.00 69 1016.7
20260831212104 28 295 4.8 12.9 0.00 0.00 0.00 69 1016.7
20260831212004 28 295 4.8 16.1 0.00 0.00 0.00 69 1016.6
20260831211904 28 295 6.4 16.1 0.00 0.00 0.00 69 1016.7
20260831211804 28 294 6.4 16.1 0.00 0.00 0.00 69 1016.7
20260831211704 28 294 6.4 16.1 0.00 0.00 0.00 69 1016.7
20260831211604 28 295 6.4 16.1 0.00 0.00 0.00 69 1016.7
20260831211504 28 296 6.4 16.1 0.00 0.00 0.00 69 1016.6
20260831211404 28 296 8.0 16.1 0.00 0.00 0.00 69 1016.7
20260831211304 28 297 8.0 16.1 0.00 0.00 0.00 69 1016.6
20260831211204 28 296 8.0 16.1 0.00 0.00 0.00 69 1016.6
20260831211104 28 296 6.4 16.1 0.00 0.00 0.00 69 1016.6
20260831211004 28 297 6.4 14.5 0.00 0.00 0.00 69 1016.6
20260831210904 28 297 6.4 14.5 0.00 0.00 0.00 69 1016.6
20260831210804 28 299 6.4 17.7 0.00 0.00 0.00 69 1016.6
20260831210704 28 299 6.4 17.7 0.00 0.00 0.00 69 1016.6
20260831210604 28 299 8.0 17.7 0.00 0.00 0.00 69 1016.5
20260831210504 28 298 8.0 17.7 0.00 0.00 0.00 69 1016.5
20260831210404 28 298 8.0 17.7 0.00 0.00 0.00 69 1016.5
20260831210304 28 297 8.0 17.7 0.00 0.00 0.00 69 1016.6
20260831210204 28 297 8.0 17.7 0.00 0.00 0.00 69 1016.6
20260831210104 28 297 8.0 17.7 0.00 0.00 0.00 70 1016.5
20260831210004 28 297 8.0 17.7 0.00 0.00 0.00 70 1016.5
20260831205904 28 298 8.0 17.7 0.00 0.00 0.00 70 1016.6
20260831205804 28 297 8.0 17.7 0.00 0.00 0.00 70 1016.6
20260831205704 28 297 8.0 17.7 0.00 0.00 0.00 70 1016.5
20260831205604 28 296 8.0 17.7 0.00 0.00 0.00 70 1016.5
20260831205504 28 296 8.0 17.7 0.00 0.00 0.00 70 1016.5
20260831205404 28 295 8.0 14.5 0.00 0.00 0.00 70 1016.5
20260831205305 28 294 8.0 16.1 0.00 0.00 0.00 70 1016.5
20260831205204 28 295 8.0 16.1 0.00 0.00 0.00 70 1016.5
20260831205104 28 294 6.4 16.1 0.00 0.00 0.00 70 1016.5
20260831205004 28 294 8.0 16.1 0.00 0.00 0.00 70 1016.5
20260831204904 28 294 8.0 17.7 0.00 0.00 0.00 70 1016.5
20260831204804 28 294 8.0 17.7 0.00 0.00 0.00 70 1016.5
20260831204704 28 294 8.0 17.7 0.00 0.00 0.00 70 1016.6
20260831204604 28 294 8.0 17.7 0.00 0.00 0.00 70 1016.5
20260831204504 28 295 8.0 17.7 0.00 0.00 0.00 70 1016.5
20260831204403 28 296 8.0 17.7 0.00 0.00 0.00 70 1016.6
20260831204303 28 296 8.0 17.7 0.00 0.00 0.00 70 1016.5
20260831204203 28 295 8.0 20.9 0.00 0.00 0.00 70 1016.5
20260831204103 28 295 8.0 20.9 0.00 0.00 0.00 70 1016.5
20260831204003 28 296 8.0 20.9 0.00 0.00 0.00 70 1016.5
20260831203903 28 297 8.0 20.9 0.00 0.00 0.00 70 1016.4
20260831203803 28 299 8.0 20.9 0.00 0.00 0.00 70 1016.4
20260831203703 28 299 8.0 20.9 0.00 0.00 0.00 70 1016.4
20260831203603 28 299 8.0 20.9 0.00 0.00 0.00 70 1016.4
20260831203503 28 300 9.7 20.9 0.00 0.00 0.00 70 1016.4
20260831203403 28 301 8.0 20.9 0.00 0.00 0.00 70 1016.4
20260831203303 28 302 8.0 20.9 0.00 0.00 0.00 70 1016.4
20260831203203 28 304 8.0 16.1 0.00 0.00 0.00 70 1016.4
20260831203103 28 305 8.0 16.1 0.00 0.00 0.00 70 1016.4
20260831203003 28 305 8.0 16.1 0.00 0.00 0.00 70 1016.4
20260831202903 28 303 8.0 16.1 0.00 0.00 0.00 70 1016.4
20260831202803 28 304 8.0 16.1 0.00 0.00 0.00 70 1016.4
20260831202703 28 303 6.4 16.1 0.00 0.00 0.00 70 1016.3
20260831202603 28 302 6.4 16.1 0.00 0.00 0.00 69 1016.3
20260831202503 28 302 6.4 12.9 0.00 0.00 0.00 69 1016.2
20260831202403 28 302 6.4 12.9 0.00 0.00 0.00 69 1016.3
20260831202306 28 300 6.4 12.9 0.00 0.00 0.00 69 1016.3
20260831202203 28 299 6.4 12.9 0.00 0.00 0.00 69 1016.3
20260831202103 28 298 6.4 12.9 0.00 0.00 0.00 70 1016.2
20260831202003 28 298 4.8 12.9 0.00 0.00 0.00 70 1016.3
20260831201903 28 297 4.8 14.5 0.00 0.00 0.00 69 1016.2
20260831201803 28 295 4.8 14.5 0.00 0.00 0.00 70 1016.2
20260831201703 28 295 6.4 14.5 0.00 0.00 0.00 70 1016.3
20260831201603 28 295 6.4 14.5 0.00 0.00 0.00 70 1016.2
20260831201505 28 295 6.4 14.5 0.00 0.00 0.00 70 1016.4
20260831201403 28 294 6.4 14.5 0.00 0.00 0.00 70 1016.4
20260831201303 28 294 6.4 14.5 0.00 0.00 0.00 70 1016.4
20260831201203 28 295 6.4 14.5 0.00 0.00 0.00 70 1016.4
20260831201103 28 294 6.4 14.5 0.00 0.00 0.00 70 1016.3
20260831201003 28 294 6.4 14.5 0.00 0.00 0.00 70 1016.4
20260831200903 28 294 6.4 14.5 0.00 0.00 0.00 70 1016.3
20260831200803 28 296 6.4 14.5 0.00 0.00 0.00 70 1016.4
20260831200703 28 298 6.4 14.5 0.00 0.00 0.00 70 1016.4
20260831200603 28 297 6.4 14.5 0.00 0.00 0.00 70 1016.3
20260831200503 28 297 6.4 14.5 0.00 0.00 0.00 70 1016.4
20260831200403 28 300 6.4 14.5 0.00 0.00 0.00 70 1016.3
20260831200303 28 300 6.4 12.9 0.00 0.00 0.00 70 1016.3
20260831200203 28 298 6.4 12.9 0.00 0.00 0.00 70 1016.4
20260831200103 28 299 6.4 12.9 0.00 0.00 0.00 70 1016.4
20260831200003 28 298 6.4 12.9 0.00 0.00 0.00 70 1016.3
20260831195903 28 297 6.4 12.9 0.00 0.00 0.00 70 1016.3
20260831195803 28 296 6.4 12.9 0.00 0.00 0.00 70 1016.3
20260831195703 28 296 6.4 12.9 0.00 0.00 0.00 70 1016.2
20260831195603 28 296 6.4 12.9 0.00 0.00 0.00 70 1016.3
20260831195503 28 295 6.4 12.9 0.00 0.00 0.00 70 1016.2
20260831195403 28 294 6.4 12.9 0.00 0.00 0.00 70 1016.2
20260831195306 28 294 4.8 12.9 0.00 0.00 0.00 70 1016.2
20260831195203 28 295 4.8 12.9 0.00 0.00 0.00 70 1016.2
20260831195103 28 295 4.8 12.9 0.00 0.00 0.00 70 1016.1
20260831195003 28 296 4.8 12.9 0.00 0.00 0.00 70 1016.1
20260831194903 28 296 4.8 12.9 0.00 0.00 0.00 70 1016.1
20260831194803 28 298 4.8 12.9 0.00 0.00 0.00 70 1016.1
20260831194703 28 298 4.8 12.9 0.00 0.00 0.00 70 1016.1
20260831194603 28 298 4.8 9.7 0.00 0.00 0.00 70 1016.2
20260831194503 28 299 4.8 9.7 0.00 0.00 0.00 70 1016.2
20260831194403 28 300 4.8 9.7 0.00 0.00 0.00 70 1016.2
20260831194303 28 301 4.8 9.7 0.00 0.00 0.00 70 1016.2
20260831194203 28 301 6.4 11.3 0.00 0.00 0.00 70 1016.2
20260831194103 28 301 6.4 11.3 0.00 0.00 0.00 70 1016.2
20260831194003 28 300 6.4 11.3 0.00 0.00 0.00 70 1016.1
20260831193903 28 299 6.4 11.3 0.00 0.00 0.00 70 1016.2
20260831193803 28 299 6.4 11.3 0.00 0.00 0.00 70 1016.0
20260831193703 28 299 6.4 11.3 0.00 0.00 0.00 70 1016.1
20260831193603 28 300 6.4 11.3 0.00 0.00 0.00 70 1016.1
20260831193503 28 299 6.4 11.3 0.00 0.00 0.00 70 1016.1
20260831193403 28 298 4.8 11.3 0.00 0.00 0.00 70 1016.1
20260831193303 28 297 4.8 11.3 0.00 0.00 0.00 70 1016.1
20260831193203 28 297 4.8 9.7 0.00 0.00 0.00 70 1016.1
20260831193103 28 296 4.8 9.7 0.00 0.00 0.00 69 1016.1
20260831193003 28 297 3.2 9.7 0.00 0.00 0.00 69 1016.0
20260831192903 28 299 3.2 9.7 0.00 0.00 0.00 70 1016.1
20260831192803 28 297 3.2 9.7 0.00 0.00 0.00 70 1016.1
20260831192703 28 296 3.2 9.7 0.00 0.00 0.00 69 1016.0
20260831192603 28 294 3.2 9.7 0.00 0.00 0.00 70 1016.1
20260831192503 28 294 3.2 9.7 0.00 0.00 0.00 70 1016.0
20260831192403 28 294 3.2 9.7 0.00 0.00 0.00 70 1016.0
20260831192305 28 295 3.2 9.7 0.00 0.00 0.00 70 1016.1
20260831192203 28 294 3.2 9.7 0.00 0.00 0.00 70 1016.0
20260831192103 28 294 3.2 9.7 0.00 0.00 0.00 70 1016.0
20260831192003 28 294 3.2 9.7 0.00 0.00 0.00 70 1016.0
20260831191903 28 293 3.2 9.7 0.00 0.00 0.00 70 1016.0
20260831191803 28 295 3.2 9.7 0.00 0.00 0.00 70 1016.1
20260831191703 28 296 3.2 9.7 0.00 0.00 0.00 70 1016.1
20260831191603 28 298 3.2 9.7 0.00 0.00 0.00 70 1015.9
20260831191503 28 298 3.2 9.7 0.00 0.00 0.00 70 1016.0
20260831191403 28 297 3.2 9.7 0.00 0.00 0.00 70 1016.1
20260831191303 28 297 3.2 9.7 0.00 0.00 0.00 70 1016.0
20260831191204 28 297 3.2 9.7 0.00 0.00 0.00 70 1016.0
20260831191104 28 296 4.8 12.9 0.00 0.00 0.00 70 1015.9
20260831191004 28 298 4.8 12.9 0.00 0.00 0.00 70 1015.9
20260831190904 28 299 4.8 12.9 0.00 0.00 0.00 70 1016.0
20260831190804 28 298 4.8 12.9 0.00 0.00 0.00 70 1016.0
20260831190704 28 298 4.8 12.9 0.00 0.00 0.00 70 1016.0
20260831190604 28 298 4.8 12.9 0.00 0.00 0.00 70 1016.0
20260831190504 28 298 4.8 12.9 0.00 0.00 0.00 70 1016.0
20260831190404 28 298 4.8 12.9 0.00 0.00 0.00 70 1015.9
20260831190304 28 299 4.8 12.9 0.00 0.00 0.00 70 1015.9
20260831190204 28 299 4.8 12.9 0.00 0.00 0.00 70 1016.0
20260831190104 28 299 4.8 11.3 0.00 0.00 0.00 69 1016.0
20260831190004 28 298 4.8 11.3 0.00 0.00 0.00 70 1016.0
20260831185904 28 298 4.8 11.3 0.00 0.00 0.00 70 1015.9
20260831185804 28 298 4.8 11.3 0.00 0.00 0.00 70 1016.0
20260831185704 28 298 3.2 11.3 0.00 0.00 0.00 70 1016.2
20260831185604 28 298 3.2 11.3 0.00 0.00 0.00 69 1016.1
20260831185504 28 299 3.2 11.3 0.00 0.00 0.00 69 1016.1
20260831185404 28 298 3.2 11.3 0.00 0.00 0.00 69 1016.2
20260831185306 28 299 4.8 11.3 0.00 0.00 0.00 69 1016.1
20260831185204 28 299 4.8 11.3 0.00 0.00 0.00 69 1016.2
20260831185104 28 299 3.2 11.3 0.00 0.00 0.00 69 1016.2
20260831185004 28 299 3.2 11.3 0.00 0.00 0.00 69 1016.2
20260831184904 28 298 3.2 11.3 0.00 0.00 0.00 69 1016.2
20260831184804 28 298 4.8 11.3 0.00 0.00 0.00 69 1016.2
20260831184704 28 297 4.8 11.3 0.00 0.00 0.00 69 1016.1
20260831184604 28 297 3.2 11.3 0.00 0.00 0.00 69 1016.2
20260831184504 28 296 3.2 11.3 0.00 0.00 0.00 69 1016.2
20260831184404 28 300 3.2 11.3 0.00 0.00 0.00 69 1016.3
20260831184304 28 300 3.2 11.3 0.00 0.00 0.00 69 1016.2
20260831184204 28 300 3.2 11.3 0.00 0.00 0.00 69 1016.1
20260831184104 28 298 4.8 11.3 0.00 0.00 0.00 69 1016.1
20260831184004 28 300 4.8 11.3 0.00 0.00 0.00 69 1016.1
20260831183904 28 299 4.8 11.3 0.00 0.00 0.00 69 1016.1
20260831183804 28 299 4.8 11.3 0.00 0.00 0.00 69 1016.1
20260831183704 28 299 4.8 11.3 0.00 0.00 0.00 69 1016.0
20260831183604 28 299 6.4 11.3 0.00 0.00 0.00 69 1015.9
20260831183504 28 300 6.4 11.3 0.00 0.00 0.00 69 1016.0
20260831183404 28 298 6.4 11.3 0.00 0.00 0.00 69 1016.0
20260831183304 28 297 6.4 11.3 0.00 0.00 0.00 69 1016.0
20260831183204 28 297 6.4 11.3 0.00 0.00 0.00 69 1016.0
20260831183104 28 298 6.4 12.9 0.00 0.00 0.00 69 1016.0
20260831183004 28 297 6.4 12.9 0.00 0.00 0.00 69 1016.0
20260831182904 28 298 6.4 12.9 0.00 0.00 0.00 69 1015.9
20260831182804 28 299 6.4 12.9 0.00 0.00 0.00 69 1016.0
20260831182704 28 299 6.4 12.9 0.00 0.00 0.00 69 1015.9
20260831182604 28 300 6.4 12.9 0.00 0.00 0.00 69 1015.9
20260831182504 28 299 6.4 12.9 0.00 0.00 0.00 69 1015.8
20260831182404 28 300 6.4 12.9 0.00 0.00 0.00 70 1016.0
20260831182305 28 300 6.4 12.9 0.00 0.00 0.00 69 1015.9
20260831182204 28 300 6.4 12.9 0.00 0.00 0.00 69 1015.9
20260831182104 28 299 6.4 12.9 0.00 0.00 0.00 69 1015.9
20260831182004 28 299 6.4 16.1 0.00 0.00 0.00 69 1015.8
20260831181904 28 299 6.4 16.1 0.00 0.00 0.00 69 1015.8
20260831181804 28 299 6.4 16.1 0.00 0.00 0.00 69 1015.7
20260831181704 28 297 6.4 16.1 0.00 0.00 0.00 69 1015.7
20260831181604 28 298 6.4 16.1 0.00 0.00 0.00 69 1015.6
20260831181504 28 298 6.4 16.1 0.00 0.00 0.00 69 1015.8
20260831181404 29 298 8.0 16.1 0.00 0.00 0.00 69 1015.7
20260831181304 29 298 8.0 16.1 0.00 0.00 0.00 69 1015.7
20260831181204 29 298 8.0 16.1 0.00 0.00 0.00 69 1015.7
20260831181104 29 298 8.0 16.1 0.00 0.00 0.00 69 1015.7
20260831181004 29 299 6.4 12.9 0.00 0.00 0.00 69 1015.6
20260831180904 29 298 6.4 12.9 0.00 0.00 0.00 69 1015.7
20260831180803 29 298 6.4 12.9 0.00 0.00 0.00 69 1015.7
20260831180704 29 299 6.4 12.9 0.00 0.00 0.00 69 1015.7
20260831180604 29 298 6.4 12.9 0.00 0.00 0.00 68 1015.7
20260831180504 29 299 4.8 12.9 0.00 0.00 0.00 68 1015.8
20260831180403 29 299 4.8 12.9 0.00 0.00 0.00 68 1015.7
20260831180303 29 299 4.8 12.9 0.00 0.00 0.00 68 1015.8
20260831180204 29 300 4.8 12.9 0.00 0.00 0.00 68 1015.7
20260831180103 29 300 4.8 12.9 0.00 0.00 0.00 68 1015.7
20260831180004 29 299 4.8 12.9 0.00 0.00 0.00 68 1015.8
20260831175903 29 300 4.8 12.9 0.00 0.00 0.00 68 1015.8
20260831175803 29 300 4.8 12.9 0.00 0.00 0.00 68 1015.7
20260831175703 29 300 6.4 12.9 0.00 0.00 0.00 68 1015.7
20260831175603 29 299 6.4 12.9 0.00 0.00 0.00 68 1015.8
20260831175503 29 298 6.4 12.9 0.00 0.00 0.00 68 1015.8
20260831175403 29 299 6.4 12.9 0.00 0.00 0.00 68 1015.7
20260831175306 29 298 6.4 12.9 0.00 0.00 0.00 68 1015.7
20260831175203 29 297 6.4 12.9 0.00 0.00 0.00 68 1015.6
20260831175103 29 297 6.4 12.9 0.00 0.00 0.00 68 1015.7
20260831175003 29 297 6.4 12.9 0.00 0.00 0.00 68 1015.7
20260831174903 29 295 6.4 16.1 0.00 0.00 0.00 68 1015.7
20260831174803 29 296 6.4 16.1 0.00 0.00 0.00 68 1015.6
20260831174703 29 296 6.4 16.1 0.00 0.00 0.00 68 1015.7
20260831174603 29 295 6.4 22.5 0.00 0.00 0.00 68 1015.7
20260831174503 29 295 6.4 22.5 0.00 0.00 0.00 68 1015.6
20260831174403 29 295 6.4 22.5 0.00 0.00 0.00 68 1015.6
20260831174303 29 295 6.4 22.5 0.00 0.00 0.00 68 1015.5
20260831174203 29 296 6.4 22.5 0.00 0.00 0.00 68 1015.5
20260831174103 29 296 4.8 22.5 0.00 0.00 0.00 68 1015.6
20260831174003 29 295 4.8 22.5 0.00 0.00 0.00 68 1015.6
20260831173903 29 298 4.8 22.5 0.00 0.00 0.00 68 1015.6
20260831173803 29 298 4.8 22.5 0.00 0.00 0.00 68 1015.6
20260831173703 29 297 4.8 22.5 0.00 0.00 0.00 68 1015.6
20260831173603 29 300 4.8 16.1 0.00 0.00 0.00 67 1015.7
20260831173503 29 299 4.8 19.3 0.00 0.00 0.00 67 1015.7
20260831173403 29 298 4.8 19.3 0.00 0.00 0.00 67 1015.7
20260831173303 29 300 6.4 19.3 0.00 0.00 0.00 67 1015.7
20260831173203 29 299 6.4 19.3 0.00 0.00 0.00 67 1015.6
20260831173103 29 299 6.4 19.3 0.00 0.00 0.00 67 1015.7
20260831173004 29 301 6.4 19.3 0.00 0.00 0.00 67 1015.7
20260831172903 29 299 8.0 19.3 0.00 0.00 0.00 67 1015.6
20260831172803 29 300 8.0 19.3 0.00 0.00 0.00 67 1015.6
20260831172703 29 300 8.0 19.3 0.00 0.00 0.00 67 1015.6
20260831172603 29 298 8.0 19.3 0.00 0.00 0.00 67 1015.6
20260831172503 29 299 8.0 17.7 0.00 0.00 0.00 67 1015.5
20260831172403 29 298 8.0 17.7 0.00 0.00 0.00 67 1015.5
20260831172306 30 296 8.0 17.7 0.00 0.00 0.00 67 1015.5
20260831172203 30 297 8.0 17.7 0.00 0.00 0.00 66 1015.5
20260831172103 30 297 8.0 17.7 0.00 0.00 0.00 67 1015.6
20260831172003 30 295 8.0 17.7 0.00 0.00 0.00 67 1015.6
20260831171903 30 295 6.4 17.7 0.00 0.00 0.00 67 1015.6
20260831171803 30 294 6.4 14.5 0.00 0.00 0.00 67 1015.6
20260831171703 30 293 6.4 17.7 0.00 0.00 0.00 67 1015.7
20260831171603 30 295 6.4 17.7 0.00 0.00 0.00 67 1015.8
20260831171503 30 294 6.4 17.7 0.00 0.00 0.00 67 1015.8
20260831171403 30 295 6.4 17.7 0.00 0.00 0.00 67 1015.8
20260831171303 30 296 6.4 17.7 0.00 0.00 0.00 67 1015.8
20260831171203 30 296 6.4 17.7 0.00 0.00 0.00 67 1015.8
20260831171103 30 296 6.4 17.7 0.00 0.00 0.00 67 1015.8
20260831171003 30 296 6.4 17.7 0.00 0.00 0.00 67 1015.8
20260831170903 30 295 8.0 17.7 0.00 0.00 0.00 66 1015.8
20260831170803 30 295 8.0 17.7 0.00 0.00 0.00 66 1015.8
20260831170703 30 295 8.0 16.1 0.00 0.00 0.00 66 1015.8
20260831170603 30 294 8.0 16.1 0.00 0.00 0.00 66 1015.8
20260831170504 30 294 8.0 16.1 0.00 0.00 0.00 66 1015.7
20260831170403 30 295 8.0 16.1 0.00 0.00 0.00 66 1015.7
20260831170303 30 295 8.0 16.1 0.00 0.00 0.00 66 1015.7
20260831170203 30 296 8.0 16.1 0.00 0.00 0.00 66 1015.7
20260831170003 30 297 8.0 16.1 0.00 0.00 0.00 66 1015.8
20260831165903 30 298 6.4 16.1 0.00 0.00 0.00 66 1015.8
20260831165803 30 299 6.4 16.1 0.00 0.00 0.00 66 1015.7
20260831165703 30 298 4.8 16.1 0.00 0.00 0.00 66 1015.6
20260831165603 30 298 4.8 16.1 0.00 0.00 0.00 66 1015.6
20260831165503 30 299 4.8 16.1 0.00 0.00 0.00 66 1015.6
20260831165403 30 298 4.8 12.9 0.00 0.00 0.00 66 1015.7
20260831165305 30 299 4.8 12.9 0.00 0.00 0.00 66 1015.7
20260831165203 30 300 4.8 14.5 0.00 0.00 0.00 66 1015.7
20260831165103 30 299 4.8 16.1 0.00 0.00 0.00 66 1015.7
20260831165003 30 296 4.8 19.3 0.00 0.00 0.00 65 1015.6
20260831164903 30 297 6.4 19.3 0.00 0.00 0.00 66 1015.6
20260831164803 30 298 6.4 19.3 0.00 0.00 0.00 66 1015.6
20260831164703 30 299 6.4 19.3 0.00 0.00 0.00 65 1015.7
20260831164603 30 300 6.4 19.3 0.00 0.00 0.00 65 1015.6
20260831164503 30 300 8.0 19.3 0.00 0.00 0.00 65 1015.6
20260831164403 30 299 8.0 19.3 0.00 0.00 0.00 65 1015.6
20260831164303 30 299 8.0 19.3 0.00 0.00 0.00 66 1015.6
20260831164203 30 300 8.0 19.3 0.00 0.00 0.00 65 1015.7
20260831164103 30 299 8.0 19.3 0.00 0.00 0.00 65 1015.6
20260831164003 30 300 6.4 16.1 0.00 0.00 0.00 65 1015.6
20260831163903 30 299 6.4 16.1 0.00 0.00 0.00 65 1015.6
20260831163803 30 299 4.8 16.1 0.00 0.00 0.00 64 1015.6
20260831163703 30 299 4.8 16.1 0.00 0.00 0.00 64 1015.6
20260831163603 30 298 4.8 14.5 0.00 0.00 0.00 65 1015.6
20260831163503 30 297 4.8 12.9 0.00 0.00 0.00 65 1015.5
20260831163403 30 297 4.8 12.9 0.00 0.00 0.00 65 1015.6
20260831163303 30 297 4.8 12.9 0.00 0.00 0.00 65 1015.5
20260831163203 30 297 4.8 14.5 0.00 0.00 0.00 65 1015.6
20260831163103 30 297 4.8 14.5 0.00 0.00 0.00 65 1015.7
20260831163003 30 297 4.8 14.5 0.00 0.00 0.00 65 1015.6
20260831162903 30 298 4.8 14.5 0.00 0.00 0.00 65 1015.6
20260831162803 30 298 4.8 14.5 0.00 0.00 0.00 65 1015.7
20260831162703 30 299 4.8 14.5 0.00 0.00 0.00 64 1015.7
20260831162603 30 300 6.4 14.5 0.00 0.00 0.00 64 1015.7
20260831162503 30 300 6.4 14.5 0.00 0.00 0.00 64 1015.8
20260831162403 30 301 4.8 14.5 0.00 0.00 0.00 64 1015.7
20260831162305 30 302 6.4 16.1 0.00 0.00 0.00 63 1015.8
20260831162203 30 300 6.4 16.1 0.00 0.00 0.00 63 1015.8
20260831162103 30 298 6.4 16.1 0.00 0.00 0.00 63 1015.8
20260831162004 30 299 6.4 16.1 0.00 0.00 0.00 63 1015.7
20260831161904 30 300 6.4 16.1 0.00 0.00 0.00 62 1015.8
20260831161804 30 300 6.4 19.3 0.00 0.00 0.00 62 1015.7
20260831161704 30 299 6.4 19.3 0.00 0.00 0.00 62 1015.7
20260831161604 30 298 6.4 19.3 0.00 0.00 0.00 62 1015.7
20260831161504 30 299 6.4 19.3 0.00 0.00 0.00 62 1015.6
20260831161404 30 298 8.0 19.3 0.00 0.00 0.00 62 1015.6
20260831161304 30 299 8.0 19.3 0.00 0.00 0.00 62 1015.6
20260831161204 30 300 8.0 19.3 0.00 0.00 0.00 62 1015.6
20260831161104 30 302 8.0 19.3 0.00 0.00 0.00 62 1015.6
20260831161004 30 302 8.0 19.3 0.00 0.00 0.00 62 1015.6
20260831160904 30 301 8.0 19.3 0.00 0.00 0.00 62 1015.7
20260831160804 30 300 9.7 17.7 0.00 0.00 0.00 62 1015.8
20260831160704 30 301 9.7 17.7 0.00 0.00 0.00 61 1015.8
20260831160604 30 299 9.7 17.7 0.00 0.00 0.00 61 1015.8
20260831160504 30 300 9.7 17.7 0.00 0.00 0.00 61 1015.7
20260831160404 30 300 9.7 17.7 0.00 0.00 0.00 61 1015.7
20260831160304 30 299 8.0 17.7 0.00 0.00 0.00 61 1015.7
20260831160204 30 299 8.0 17.7 0.00 0.00 0.00 61 1015.6
20260831160104 31 299 8.0 17.7 0.00 0.00 0.00 61 1015.6
20260831160004 31 298 8.0 17.7 0.00 0.00 0.00 61 1015.6
20260831155904 31 298 8.0 17.7 0.00 0.00 0.00 61 1015.6
20260831155804 31 299 8.0 17.7 0.00 0.00 0.00 60 1015.6
20260831155704 31 298 8.0 17.7 0.00 0.00 0.00 60 1015.6
20260831155604 31 300 8.0 16.1 0.00 0.00 0.00 60 1015.6
20260831155504 31 297 8.0 22.5 0.00 0.00 0.00 60 1015.5
20260831155404 31 297 8.0 22.5 0.00 0.00 0.00 60 1015.7
20260831155306 31 296 8.0 22.5 0.00 0.00 0.00 60 1015.7
20260831155204 31 297 8.0 22.5 0.00 0.00 0.00 60 1015.8
20260831155104 31 298 8.0 22.5 0.00 0.00 0.00 60 1015.8
20260831155004 31 297 8.0 22.5 0.00 0.00 0.00 61 1015.8
20260831154904 31 297 8.0 22.5 0.00 0.00 0.00 60 1015.8
20260831154804 31 297 8.0 22.5 0.00 0.00 0.00 61 1015.8
20260831154704 31 297 8.0 22.5 0.00 0.00 0.00 60 1015.8
20260831154604 31 296 8.0 22.5 0.00 0.00 0.00 60 1015.8
20260831154504 31 298 8.0 14.5 0.00 0.00 0.00 60 1015.7
20260831154404 31 299 6.4 14.5 0.00 0.00 0.00 60 1015.7
20260831154304 31 297 6.4 14.5 0.00 0.00 0.00 60 1015.7
20260831154204 31 298 6.4 14.5 0.00 0.00 0.00 60 1015.7
20260831154104 31 296 6.4 14.5 0.00 0.00 0.00 61 1015.6
20260831154004 31 298 6.4 16.1 0.00 0.00 0.00 60 1015.7
20260831153904 31 300 6.4 16.1 0.00 0.00 0.00 60 1015.6
20260831153804 31 300 6.4 16.1 0.00 0.00 0.00 60 1015.7
20260831153704 31 300 6.4 16.1 0.00 0.00 0.00 60 1015.8
20260831153604 31 300 6.4 16.1 0.00 0.00 0.00 60 1015.7
20260831153504 31 301 6.4 16.1 0.00 0.00 0.00 60 1015.6
20260831153404 31 301 6.4 16.1 0.00 0.00 0.00 59 1015.6
20260831153304 31 302 6.4 16.1 0.00 0.00 0.00 59 1015.6
20260831153204 31 303 6.4 16.1 0.00 0.00 0.00 59 1015.6
20260831153104 31 303 6.4 16.1 0.00 0.00 0.00 59 1015.6
20260831153004 31 304 6.4 17.7 0.00 0.00 0.00 59 1015.7
20260831152903 31 303 4.8 17.7 0.00 0.00 0.00 58 1015.6
20260831152804 31 303 4.8 17.7 0.00 0.00 0.00 58 1015.5
20260831152703 31 302 6.4 17.7 0.00 0.00 0.00 58 1015.5
20260831152604 31 303 6.4 17.7 0.00 0.00 0.00 58 1015.5
20260831152504 31 303 6.4 17.7 0.00 0.00 0.00 58 1015.5
20260831152403 31 303 6.4 17.7 0.00 0.00 0.00 57 1015.5
20260831152306 31 303 6.4 17.7 0.00 0.00 0.00 57 1015.5
20260831152204 31 301 8.0 17.7 0.00 0.00 0.00 57 1015.5
20260831152103 31 301 6.4 17.7 0.00 0.00 0.00 57 1015.5
20260831152003 31 301 6.4 17.7 0.00 0.00 0.00 57 1015.5
20260831151904 31 300 6.4 17.7 0.00 0.00 0.00 57 1015.5
20260831151804 31 300 6.4 17.7 0.00 0.00 0.00 57 1015.4
20260831151703 31 301 4.8 19.3 0.00 0.00 0.00 57 1015.4
20260831151604 31 300 4.8 19.3 0.00 0.00 0.00 57 1015.5
20260831151503 31 299 4.8 19.3 0.00 0.00 0.00 58 1015.5
20260831151403 31 298 4.8 19.3 0.00 0.00 0.00 57 1015.5
20260831151303 31 299 4.8 19.3 0.00 0.00 0.00 57 1015.4
20260831151203 31 300 4.8 19.3 0.00 0.00 0.00 57 1015.4
20260831151103 31 300 4.8 19.3 0.00 0.00 0.00 57 1015.5
20260831151003 31 299 4.8 19.3 0.00 0.00 0.00 57 1015.4
20260831150903 31 300 6.4 19.3 0.00 0.00 0.00 57 1015.4
20260831150803 31 300 6.4 19.3 0.00 0.00 0.00 57 1015.4
20260831150703 31 300 4.8 14.5 0.00 0.00 0.00 57 1015.4
20260831150603 31 300 4.8 14.5 0.00 0.00 0.00 57 1015.4
20260831150503 31 301 4.8 14.5 0.00 0.00 0.00 57 1015.5
20260831150404 31 299 4.8 17.7 0.00 0.00 0.00 57 1015.4
20260831150303 31 298 6.4 17.7 0.00 0.00 0.00 57 1015.4
20260831150203 31 296 6.4 17.7 0.00 0.00 0.00 57 1015.4
20260831150103 31 297 6.4 17.7 0.00 0.00 0.00 57 1015.3
20260831150004 31 297 6.4 17.7 0.00 0.00 0.00 57 1015.5
20260831145903 31 297 8.0 17.7 0.00 0.00 0.00 57 1015.4
20260831145803 31 297 8.0 17.7 0.00 0.00 0.00 57 1015.4
20260831145703 31 297 8.0 17.7 0.00 0.00 0.00 57 1015.5
20260831145603 31 299 9.7 17.7 0.00 0.00 0.00 57 1015.3
20260831145503 31 299 9.7 17.7 0.00 0.00 0.00 57 1015.5
20260831145403 31 300 9.7 16.1 0.00 0.00 0.00 57 1015.5
20260831145306 31 300 9.7 16.1 0.00 0.00 0.00 57 1015.4
20260831145203 31 299 9.7 16.1 0.00 0.00 0.00 57 1015.4
20260831145103 31 299 9.7 16.1 0.00 0.00 0.00 57 1015.4
20260831145003 32 299 8.0 16.1 0.00 0.00 0.00 56 1015.4
20260831144903 1 298 8.0 16.1 0.00 0.00 0.00 56 1015.3
20260831144803 32 298 8.0 16.1 0.00 0.00 0.00 56 1015.3
20260831144703 32 300 8.0 17.7 0.00 0.00 0.00 56 1015.3
20260831144603 32 298 8.0 17.7 0.00 0.00 0.00 56 1015.3
20260831144503 32 296 8.0 17.7 0.00 0.00 0.00 56 1015.4
20260831144403 32 297 8.0 17.7 0.00 0.00 0.00 56 1015.4
20260831144303 32 297 6.4 17.7 0.00 0.00 0.00 56 1015.4
20260831144203 32 297 6.4 17.7 0.00 0.00 0.00 55 1015.4
20260831144103 32 297 6.4 17.7 0.00 0.00 0.00 55 1015.3
20260831144003 32 299 6.4 24.1 0.00 0.00 0.00 55 1015.4
20260831143903 32 299 8.0 24.1 0.00 0.00 0.00 55 1015.4
20260831143803 32 300 6.4 24.1 0.00 0.00 0.00 55 1015.4
20260831143703 32 300 6.4 24.1 0.00 0.00 0.00 55 1015.5
20260831143603 32 301 6.4 24.1 0.00 0.00 0.00 55 1015.5
20260831143503 32 300 6.4 24.1 0.00 0.00 0.00 55 1015.5
20260831143403 32 300 6.4 24.1 0.00 0.00 0.00 55 1015.4
20260831143303 32 301 6.4 24.1 0.00 0.00 0.00 55 1015.5
20260831143203 32 303 6.4 24.1 0.00 0.00 0.00 54 1015.6
20260831143103 32 303 4.8 24.1 0.00 0.00 0.00 54 1015.6
20260831143003 32 304 4.8 11.3 0.00 0.00 0.00 53 1015.5
20260831142903 32 303 4.8 11.3 0.00 0.00 0.00 53 1015.5
20260831142803 32 303 4.8 11.3 0.00 0.00 0.00 53 1015.5
20260831142703 32 302 4.8 14.5 0.00 0.00 0.00 53 1015.5
20260831142603 32 304 4.8 14.5 0.00 0.00 0.00 53 1015.5
20260831142503 32 307 4.8 14.5 0.00 0.00 0.00 53 1015.6
20260831142403 32 306 4.8 14.5 0.00 0.00 0.00 53 1015.5
20260831142306 32 306 4.8 14.5 0.00 0.00 0.00 53 1015.6
20260831142203 32 303 4.8 14.5 0.00 0.00 0.00 54 1015.5
20260831142103 32 301 4.8 14.5 0.00 0.00 0.00 54 1015.5
20260831142003 32 300 4.8 14.5 0.00 0.00 0.00 53 1015.5
20260831141903 32 300 4.8 14.5 0.00 0.00 0.00 53 1015.5
20260831141803 32 301 6.4 14.5 0.00 0.00 0.00 53 1015.5
20260831141703 32 301 6.4 14.5 0.00 0.00 0.00 54 1015.5
20260831141603 32 298 4.8 14.5 0.00 0.00 0.00 54 1015.5
20260831141503 32 298 4.8 14.5 0.00 0.00 0.00 54 1015.5
20260831141403 32 299 4.8 14.5 0.00 0.00 0.00 54 1015.5
20260831141303 32 300 4.8 14.5 0.00 0.00 0.00 54 1015.6
20260831141203 32 301 4.8 14.5 0.00 0.00 0.00 54 1015.6
20260831141103 32 300 4.8 14.5 0.00 0.00 0.00 54 1015.5
20260831141003 32 299 4.8 14.5 0.00 0.00 0.00 54 1015.6
20260831140903 32 300 4.8 14.5 0.00 0.00 0.00 53 1015.5
20260831140803 32 299 4.8 14.5 0.00 0.00 0.00 53 1015.6
20260831140703 32 300 4.8 17.7 0.00 0.00 0.00 53 1015.5
20260831140603 32 301 4.8 17.7 0.00 0.00 0.00 53 1015.6
20260831140503 32 301 4.8 17.7 0.00 0.00 0.00 53 1015.6
20260831140403 32 299 4.8 17.7 0.00 0.00 0.00 53 1015.5
20260831140303 32 299 6.4 17.7 0.00 0.00 0.00 53 1015.7
20260831140203 32 299 6.4 17.7 0.00 0.00 0.00 53 1015.6
20260831140003 32 300 6.4 17.7 0.00 0.00 0.00 53 1015.6
20260831135903 32 299 6.4 17.7 0.00 0.00 0.00 53 1015.6
20260831135803 32 300 4.8 17.7 0.00 0.00 0.00 53 1015.6
20260831135703 32 300 4.8 12.9 0.00 0.00 0.00 53 1015.5
20260831135603 32 298 4.8 12.9 0.00 0.00 0.00 53 1015.6
20260831135503 32 298 4.8 12.9 0.00 0.00 0.00 52 1015.6
20260831135403 32 298 3.2 12.9 0.00 0.00 0.00 51 1015.6
20260831135306 32 299 3.2 12.9 0.00 0.00 0.00 51 1015.6
20260831135203 32 302 3.2 12.9 0.00 0.00 0.00 51 1015.5
20260831135103 32 301 3.2 12.9 0.00 0.00 0.00 51 1015.6
20260831135003 32 305 3.2 11.3 0.00 0.00 0.00 51 1015.6
20260831134903 32 308 3.2 14.5 0.00 0.00 0.00 51 1015.6
20260831134803 32 309 3.2 14.5 0.00 0.00 0.00 51 1015.6
20260831134703 32 308 3.2 14.5 0.00 0.00 0.00 51 1015.6
20260831134603 32 307 3.2 14.5 0.00 0.00 0.00 51 1015.5
20260831134503 32 306 4.8 16.1 0.00 0.00 0.00 51 1015.5
20260831134403 32 305 4.8 16.1 0.00 0.00 0.00 50 1015.6
20260831134303 32 303 4.8 16.1 0.00 0.00 0.00 50 1015.5
20260831134203 32 302 6.4 16.1 0.00 0.00 0.00 50 1015.5
20260831134104 32 303 6.4 16.1 0.00 0.00 0.00 51 1015.5
20260831134004 32 301 8.0 16.1 0.00 0.00 0.00 51 1015.5
20260831133904 32 300 8.0 16.1 0.00 0.00 0.00 51 1015.5
20260831133804 32 300 6.4 16.1 0.00 0.00 0.00 51 1015.5
20260831133704 32 300 6.4 16.1 0.00 0.00 0.00 51 1015.5
20260831133604 32 300 6.4 16.1 0.00 0.00 0.00 51 1015.5
20260831133504 33 299 6.4 16.1 0.00 0.00 0.00 50 1015.6
20260831133404 33 300 6.4 17.7 0.00 0.00 0.00 50 1015.6
20260831133304 33 300 6.4 17.7 0.00 0.00 0.00 50 1015.5
20260831133204 33 300 6.4 17.7 0.00 0.00 0.00 49 1015.5
20260831133104 33 299 6.4 17.7 0.00 0.00 0.00 48 1015.5
20260831133004 33 300 4.8 17.7 0.00 0.00 0.00 48 1015.6
20260831132904 33 300 4.8 17.7 0.00 0.00 0.00 48 1015.6
20260831132804 33 300 4.8 17.7 0.00 0.00 0.00 48 1015.6
20260831132704 33 299 4.8 17.7 0.00 0.00 0.00 47 1015.5
20260831132604 33 298 4.8 17.7 0.00 0.00 0.00 47 1015.5
20260831132504 33 299 4.8 17.7 0.00 0.00 0.00 47 1015.6
20260831132404 33 298 4.8 12.9 0.00 0.00 0.00 46 1015.5
20260831132306 33 299 4.8 12.9 0.00 0.00 0.00 45 1015.5
20260831132204 33 299 4.8 12.9 0.00 0.00 0.00 45 1015.5
20260831132104 33 298 4.8 12.9 0.00 0.00 0.00 45 1015.6
20260831132004 33 298 4.8 12.9 0.00 0.00 0.00 45 1015.6
20260831131904 33 298 3.2 12.9 0.00 0.00 0.00 46 1015.6
20260831131804 33 297 4.8 14.5 0.00 0.00 0.00 46 1015.6
20260831131704 33 299 4.8 16.1 0.00 0.00 0.00 46 1015.5
20260831131604 33 300 4.8 16.1 0.00 0.00 0.00 46 1015.5
20260831131504 33 301 4.8 16.1 0.00 0.00 0.00 45 1015.5
20260831131404 33 302 4.8 16.1 0.00 0.00 0.00 45 1015.5
20260831131304 33 301 6.4 16.1 0.00 0.00 0.00 44 1015.6
20260831131204 33 300 4.8 16.1 0.00 0.00 0.00 44 1015.5
20260831131104 33 300 4.8 16.1 0.00 0.00 0.00 44 1015.5
20260831131004 33 302 4.8 16.1 0.00 0.00 0.00 45 1015.7
20260831130904 33 302 6.4 16.1 0.00 0.00 0.00 45 1015.7
20260831130804 33 304 4.8 16.1 0.00 0.00 0.00 44 1015.7
20260831130704 33 302 4.8 11.3 0.00 0.00 0.00 44 1015.8
20260831130604 33 301 4.8 11.3 0.00 0.00 0.00 44 1015.7
20260831130504 33 300 4.8 11.3 0.00 0.00 0.00 44 1015.6
20260831130404 33 299 4.8 11.3 0.00 0.00 0.00 44 1015.6
20260831130304 33 301 4.8 11.3 0.00 0.00 0.00 43 1015.5
20260831130204 33 301 4.8 11.3 0.00 0.00 0.00 44 1015.5
20260831130104 33 301 4.8 11.3 0.00 0.00 0.00 43 1015.6
20260831130004 33 299 3.2 11.3 0.00 0.00 0.00 43 1015.5
20260831125904 33 297 3.2 11.3 0.00 0.00 0.00 43 1015.6
20260831125804 33 297 3.2 11.3 0.00 0.00 0.00 42 1015.7
20260831125704 33 298 3.2 11.3 0.00 0.00 0.00 43 1015.7
20260831125604 33 299 3.2 11.3 0.00 0.00 0.00 42 1015.7
20260831125504 33 299 1.6 11.3 0.00 0.00 0.00 42 1015.6